     2.00           OBSERVATION DATA    G (GPS)             RINEX VERSION / TYPE
teqc 1998Oct7 Victoria Andreatta 19981202 00:34:26UTC       PGM / RUN BY / DATE
Linux 2.0.30|PentPro|gcc|Linux|486/DX+                      COMMENT
????                                                        MARKER NAME
???                                                         OBSERVER / AGENCY
0 TURBOROGUE 96.03.24                                       REC # / TYPE / VERS
unknown unknown                                             ANT # / TYPE
 -1286055.4155 -4719332.7324  4082016.7508                  APPROX POSITION XYZ
        0.0000        0.0000        0.0000                  ANTENNA: DELTA H/E/N
     1     1                                                WAVELENGTH FACT L1/2
     5    L1    L2    C1    P2    P1                        # / TYPES OF OBSERV
SNR is mapped to RINEX snr flag value [1,4-9]               COMMENT
SNR: >316 >100 >31.6 >10 >3.2 >0 bad=0                      COMMENT
L1 & L2: 9 8 7 6 5 4 1                                      COMMENT
  1998    12     1     0     0    0.000000      GPS         TIME OF FIRST OBS
                                                            END OF HEADER
 98 12  1  0  0  0.0000000  0  7G13G31G27G19G18G15G 7
   1291506.11949   1006368.94445  21430422.1304   21430424.6394
   4532621.88449   3531912.63744  22436798.5654   22436802.0174
  -2699114.35649  -2103203.13645  20265919.3904   20265922.1574
   2252751.84549   1755392.52045  20873781.9434   20873785.3954
   6882784.74246   5363204.94744  24289011.0784
   -407986.85547                  23893488.3844
   -520546.84847   -405618.50144  23888358.7824   23888367.7184
 98 12  1  0  0 30.0000000  0  7G13G31G27G19G18G15G 7
   1330716.71949   1036922.64145  21437883.7834   21437886.4704
   4619673.58349   3599745.11344  22453363.9504   22453367.4324
  -2732978.99149  -2129591.12845  20259475.1124   20259478.0994
   2302120.73649   1793861.80045  20883176.4944   20883180.1534
   6997730.81346                  24310884.4664
   -488943.26247   -380993.95044  23878081.8134   23878091.9904
   -624244.95047   -486421.97744  23868625.5654   23868634.2534
 98 12  1  0  1  0.0000000  0  7G13G31G27G19G18G15G 7
   1370478.29649   1067905.67544  21445450.0764   21445452.3664
   4707071.15149   3667847.10944  22469995.2414   22469998.6404
  -2766406.36449  -2155638.40245  20253114.1464   20253117.1274
   2351919.05749   1832665.70045  20892652.9024   20892656.4064
   7112705.94047   5542364.09944  24332764.1804   24332773.3644
   -569678.29347   -443904.17044  23862717.3374   23862727.5134
   -727824.58947   -567133.15744  23848915.1254   23848922.3504
 98 12  1  0  1 30.0000000  0  7G13G31G27G19G18G15G 7
   1410798.07149   1099323.67344  21453122.7354   21453124.9674
   4794826.95749   3736228.24244  22486694.2944   22486697.8104
  -2799399.07849  -2181346.98045  20246835.9174   20246838.8074
   2402170.81049   1871822.92645  20902215.4774   20902218.8064
   7227684.61646   5631957.80644  24354644.5964   24354655.2704
   -650188.49447   -506639.19944  23847396.6614   23847406.8384
   -831278.28048                  23829228.4344
 98 12  1  0  2  0.0000000  0  7G13G31G27G19G18G15G 7
   1451670.34249   1131172.18944  21460900.5604   21460902.7674
   4882954.42649   3804898.98344  22503464.3674   22503468.1254
  -2831979.29449  -2206734.12945  20240635.9664   20240638.8374
   2452867.14549   1911326.58545  20911862.7684   20911866.0974
   7342647.57446                  24376521.4054
   -730470.52048   -569196.42544  23832119.8254   23832125.9264
   -934593.32648   -728251.15544  23809568.6434   23809575.7114
 98 12  1  0  2 30.0000000  0  7G13G31G27G19G18G15G 7
   1493090.12049   1163447.33344  21468782.3394   21468784.4744
   4971464.21149   3873867.63744  22520307.5724   22520310.9194
  -2864180.17049  -2231825.68945  20234508.2224   20234511.1194
   2503986.17849   1951159.61845  20921590.6384   20921593.7534
   7457585.37246   5811101.03844  24398394.0434   24398398.8644
   -810521.59248   -631573.72844  23816886.2084   23816892.0884
  -1037756.71348   -808637.97444  23789937.6234   23789944.1574
 98 12  1  0  3  0.0000000  0  7G13G31G27G19G18G15G 7
   1535059.73249   1196150.92244  21476768.8054   21476771.3504
   5060352.38249   3943131.14444  22537222.7284   22537226.6434
  -2896016.25949  -2256632.99945  20228450.1134   20228452.9934
   2555522.59149   1991317.88145  20931397.6814   20931400.8664
   7572491.96946   5900638.53844  24420260.2104
   -890338.23748   -693768.32044  23801697.9434   23801705.4614
  -1140769.40649   -888907.35044  23770334.7814   23770342.2084
 98 12  1  0  3 30.0000000  0  7G13G31G27G19G18G15G 7
   1577582.00649   1229285.15744  21484860.5204   21484862.8804
   5149609.66449   4012682.27344  22554207.9624   22554211.1844
  -2927491.84249  -2281159.39745  20222460.5474   20222463.3304
   2607449.97549   2031780.79645  20941278.7094   20941281.9244
   7687385.66546   5990165.95144  24442123.3734
   -969916.99849   -755777.61844  23786554.6654   23786563.3524
  -1243631.62749   -969059.49344  23750760.4944   23750768.6854
 98 12  1  0  4  0.0000000  0  7G13G27G19G31G18G15G 7
   1620647.28849   1262842.51644  21493055.8114   21493057.9804
  -2958596.18149  -2305396.51345  20216541.5354   20216544.4864
   2659753.26749   2072536.62045  20951231.6184   20951234.9274
   5239225.70149   4082512.95444  22571261.0864   22571264.6524
   7802281.12145   6079694.74544  24463986.5644
  -1049254.21949   -817598.63944  23771457.0204   23771463.4604
  -1346356.06149  -1049104.25544  23731212.4654   23731221.4014
 98 12  1  0  4 30.0000000  0  7G13G27G19G31G18G15G 7
   1664254.85949   1296822.44144  21501354.3824   21501356.0584
  -2989303.48349  -2329324.25145  20210698.1034   20210700.9254
   2712447.16049   2113596.80745  20961258.9834   20961262.2944
   5329187.05049   4152612.69544  22588379.7384   22588383.4584
   7917177.77245   6169224.46944  24485850.0904
  -1128346.89649   -879229.20344  23756406.0854   23756412.9114
  -1448939.70549  -1129039.34444  23711691.2724   23711700.7054
 98 12  1  0  5  0.0000000  0  7G13G27G19G31G18G15G 7
   1708397.39749   1331219.22744  21509754.3274   21509756.2034
  -3019596.42749  -2352929.11245  20204933.5434   20204936.4264
   2765534.12149   2154963.28245  20971361.4464   20971364.6324
   5419475.32549   4222967.19644  22605561.0544   22605564.3384
   8032070.86045                  24507714.6214
  -1207191.74549   -940666.61644  23741402.3574   23741409.0024
  -1551380.98549  -1208863.49044  23692196.5884   23692204.1994
 98 12  1  0  5 30.0000000  0  7G27G19G13G31G18G15G 7
  -3049455.76149  -2376196.09445  20199251.3974   20199254.4594
   2819004.45449   2196628.49045  20981536.5754   20981539.9294
   1753068.67549   1366028.01744  21518254.6654   21518257.0664
   5510079.22749   4293567.63844  22622802.5074   22622806.0164
   8146958.82746                  24529577.9944
  -1285785.41849  -1001908.32344  23726446.0524   23726451.8044
  -1653680.43249  -1288577.13644  23672729.2904   23672737.4814
 98 12  1  0  6  0.0000000  0  7G27G19G13G31G18G15G 7
  -3078862.85349  -2399110.68045  20193655.2994   20193658.4364
   2872863.53349   2238596.61245  20991785.4834   20991788.8434
   1798248.41849   1401233.01144  21526852.1544   21526854.3074
   5600995.81549   4364411.71744  22640103.7074   22640107.3914
   8261822.67046   6437778.51544  24551435.6004   24551442.9774
  -1364124.81049  -1062951.89644  23711538.4164   23711544.8424
  -1755833.89849  -1368177.06044  23653289.6074   23653297.1614
 98 12  1  0  6 30.0000000  0  7G27G19G13G31G18G15G 7
  -3107824.81549  -2421678.40945  20188143.9304   20188146.9984
   2927108.81549   2280865.67245  21002107.7324   21002111.2924
   1843949.14449   1436843.96844  21535548.7554   21535551.0404
   5692225.08149   4435499.44144  22657463.8874   22657467.7564
   8376657.06246   6527259.75244  24573288.6904   24573298.3704
  -1442206.56149  -1123794.74544  23696680.1384   23696686.5584
  -1857838.60749  -1447661.06644  23633878.6254   23633886.2154
 98 12  1  0  7  0.0000000  0  7G27G19G13G31G18G15G 7
  -3136344.71449  -2443901.67245  20182716.9054   20182719.8774
   2981729.05249   2323426.90644  21012501.5454   21012504.8634
   1890166.01649   1472857.11644  21544343.7764   21544345.7494
   5783767.58949   4506831.23444  22674883.6684   22674888.1124
   8491463.52146   6616719.22744  24595135.7534   24595140.3564
  -1520027.22249  -1184434.14744  23681871.0464   23681876.3314
  -1959708.03549  -1527039.68844  23614493.4954   23614502.1834
 98 12  1  0  7 30.0000000  0  7G27G19G13G31G18G15G 7
  -3164418.23049  -2465777.10045  20177374.5774   20177377.5294
   3036731.41549   2366285.90044  21022968.0144   21022971.3044
   1936902.01349   1509274.77944  21553237.2714   21553239.3664
   5875628.32849   4578411.00144  22692364.1104   22692367.3344
   8606242.88746   6706157.58144  24616977.3214   24616983.6844
  -1597583.54149  -1244867.51944  23667112.6494   23667117.5614
  -2061440.65249  -1606311.74044  23595134.2074   23595140.6554
 98 12  1  0  8  0.0000000  0  7G27G19G13G31G18G15G 7
  -3192056.59349  -2487313.44745  20172115.2194   20172118.0274
   3092130.07449   2409453.69444  21033510.1674   21033513.3774
   1984166.13149   1546103.96144  21562231.1454   21562233.4454
   5967816.38049   4650245.82244  22709906.6754   22709910.4294
   8720993.72546   6795573.73044  24638813.7894   24638823.7184
  -1674872.25149  -1305092.36944  23652405.0624   23652408.5824
  -2163028.45949  -1685470.93244  23575802.8114   23575810.3474
 98 12  1  0  8 30.0000000  0  7G27G19G13G31G18G15G 7
  -3219271.80949  -2508520.07045  20166936.3594   20166939.2244
   3147929.97749   2452934.14544  21044128.6124   21044131.8484
   2031964.30049   1583349.29144  21571326.6554   21571329.2554
   6060325.88049   4722331.12344  22727510.8654   22727514.2174
   8835712.20247   6884964.62044  24660643.8234   24660653.2554
  -1751889.94949  -1365106.07944  23637749.1834   23637756.5334
  -2264474.60749  -1764519.78844  23556498.2724   23556505.4864
 98 12  1  0  9  0.0000000  0  7G27G19G13G31G18G15G 7
  -3246048.58349  -2529385.05145  20161840.6714   20161843.6334
   3204141.28749   2496735.16944  21054825.3004   21054828.5144
   2080274.89749   1620993.92144  21580519.8304   21580522.2774
   6153145.95149   4794658.42144  22745173.9054   22745178.1004
   8950391.60347   6974325.06944  24682466.4084   24682472.8264
  -1828633.63449  -1424906.20344  23623144.8164   23623149.9464
  -2365760.31749  -1843443.63044  23537224.3874   23537230.1524
 98 12  1  0  9 30.0000000  0  7G27G19G13G31G18G15G 7
  -3272385.10649  -2549906.98045  20156829.0874   20156831.7394
   3260771.83749   2540862.87344  21065601.8514   21065605.2054
   2129098.83349   1659038.55644  21589810.8834   21589813.2674
   6246276.65249   4867227.76644  22762896.2484   22762900.1134
   9065031.92847   7063655.08444  24704282.2114   24704290.8984
  -1905099.89849  -1484490.18644  23608593.4284   23608598.5124
  -2466867.27049  -1922228.19644  23517984.6844   23517990.8804
 98 12  1  0 10  0.0000000  0  7G27G19G13G31G18G15G 7
  -3298299.78449  -2570100.19745  20151897.7234   20151900.2714
   3317815.03049   2585312.11944  21076456.6584   21076460.1324
   2178432.25849   1697480.20144  21599198.7304   21599201.1034
   6339717.26549   4940038.61344  22780677.6244   22780681.7534
   9179632.35447   7152954.03344  24726089.8064   24726100.9764
  -1981285.34949  -1543855.32044  23594096.1294   23594101.2374
  -2567799.95449  -2000876.96144  23498777.7724   23498783.3294
 98 12  1  0 10 30.0000000  0  7G27G19G13G31G18G15G 7
  -3323790.61349  -2589963.14445  20147046.8664   20147049.4664
   3375256.65249   2630071.82044  21087387.2534   21087390.5784
   2228270.76449   1736315.40744  21608682.5684   21608685.3674
   6433468.22149   5013091.26344  22798517.9024   22798521.2974
   9294191.31047   7242220.62044  24747889.7274   24747897.2444
  -2057186.84749  -1602999.19444  23579652.4524   23579657.2614
  -2668551.81749  -2079384.85344  23479605.4514   23479612.1334
 98 12  1  0 11  0.0000000  0  7G27G19G13G31G18G15G 7
  -3348854.11549  -2609493.11145  20142277.3644   20142280.0464
   3433093.85649   2675139.77244  21098393.3694   21098396.7244
   2278618.91449   1775547.73844  21618263.3164   21618266.3304
   6527539.47449   5086393.49544  22816419.1304   22816423.4694
   9408719.72247   7331463.42744  24769684.4034   24769690.2744
  -2132801.17749  -1661919.32144  23565263.7684   23565268.0464
  -2769113.56049  -2157744.62344  23460469.1344   23460475.4954
 98 12  1  0 11 30.0000000  0  7G27G19G13G31G18G15G 7
  -3373506.86249  -2628703.00745  20137586.2324   20137589.0174
   3491310.04349   2720503.03544  21109471.4804   21109474.8964
   2329488.37449   1815186.27844  21627943.5634   21627946.3364
   6621929.96449   5159944.48344  22834381.0754   22834384.2944
   9523220.33347   7420684.58044  24791473.3104   24791480.5654
  -2208125.04749  -1720613.09544  23550930.2844   23550937.7234
  -2869496.69449  -2235965.19744  23441366.5644   23441373.4434
 98 12  1  0 12  0.0000000  0  7G27G19G13G31G18G15G 7
  -3397739.64049  -2647585.64945  20132974.8114   20132977.6724
   3549899.81449   2766157.40444  21120620.7884   21120624.2014
   2380874.40749   1855227.34444  21637722.0554   21637724.6044
   6716621.29249   5233729.89444  22852400.2244   22852403.6714
   9637685.88747   7509878.39344  24813255.5134   24813264.6974
  -2283155.18449  -1779077.98044  23536652.0964   23536658.3254
  -2969701.86749  -2314047.12144  23422297.9334   23422304.6874
 98 12  1  0 12 30.0000000  0  7G27G19G13G31G18G15G 7
  -3421523.87449  -2666118.77445  20128448.7024   20128451.4754
   3608873.17749   2812110.68144  21131843.0294   21131846.5914
   2432778.63449   1895672.20744  21647599.2584   21647601.5074
   6811598.28249   5307737.88244  22870473.8174   22870477.6734
   9752108.23647   7599038.55244  24835029.4534   24835036.4004
  -2357888.29649  -1837311.41844  23522430.1974   23522436.4164
  -3069719.21949  -2391982.67944  23403265.0094   23403271.9394
 98 12  1  0 13  0.0000000  0  7G27G19G13G31G18G15G 7
  -3444848.84249  -2684294.03145  20124010.3684   20124012.9284
   3668237.32949   2858368.46744  21143139.4444   21143142.8404
   2485191.49549   1936513.40344  21657573.2434   21657575.5434
   6906834.26449   5381947.69944  22888596.6654   22888600.4044
   9866483.40047   7688161.97544  24856794.1764   24856803.1124
  -2432321.27549  -1895311.00344  23508266.0084   23508270.2364
  -3169548.46649  -2469771.68544  23384268.3424   23384273.8954
 98 12  1  0 13 30.0000000  0  7G27G19G13G31G18G15G 7
  -3467707.43149  -2702105.87645  20119660.4614   20119663.1684
   3728003.15449   2904939.23944  21154512.6124   21154516.1444
   2538117.02249   1977754.07644  21667644.5774   21667647.0314
   7002316.12649   5456349.12044  22906766.0634   22906769.8544
   9980806.39147   7777244.72744  24878549.3774   24878558.3124
  -2506450.74849  -1953074.08944  23494159.0854   23494163.8184
  -3269192.53949  -2547416.40144  23365306.4424   23365314.6334
 98 12  1  0 14  0.0000000  0  7G27G19G13G31G18G15G 7
  -3490095.72349  -2719551.25545  20115400.0414   20115402.4934
   3788193.62849   2951840.91844  21165966.5834   21165970.0984
   2591554.53549   2019393.68544  21677813.5174   21677815.6764
   7098050.76649   5530947.50244  22924983.9034   22924988.6104
  10095073.18047   7866283.73044  24900293.5034   24900300.6034
  -2580273.47149  -2010598.14744  23480111.1814   23480115.1534
  -3368642.22049  -2624909.60844  23346381.4544   23346388.3764
 98 12  1  0 14 30.0000000  0  7G27G19G13G31G18G15G 7
  -3512029.91849  -2736642.79345  20111226.0884   20111228.3454
   3848800.26849   2999066.87944  21177499.6904   21177503.1524
   2645502.45549   2061431.01144  21688079.7534   21688081.5724
   7194056.99449   5605757.50344  22943252.9114   22943257.3084
  10209278.92447   7955275.15644  24922025.6434   24922034.3304
  -2653786.35049  -2067880.78044  23466122.5904   23466126.9984
  -3467898.64049  -2702252.22844  23327493.3714   23327500.7634
 98 12  1  0 15  0.0000000  0  7G27G19G13G31G18G15G 7
  -3533517.18049  -2753386.07545  20107137.0304   20107139.3624
   3909812.07849   3046608.55644  21189109.7594   21189113.2634
   2699953.13049   2103860.10144  21698441.1944   21698442.8544
   7290340.64849   5680783.67544  22961575.3834   22961580.3964
  10323425.07547   8044220.17544  24943746.3914   24943756.5684
  -2726986.00449  -2124919.34644  23452193.2254   23452196.8014
  -3566974.69849  -2779454.27144  23308639.6744   23308648.6094
 98 12  1  0 15 30.0000000  0  7G27G19G13G31G18G15G 7
  -3554564.11549  -2769786.24445  20103131.7194   20103134.2694
   3971227.64849   3094464.85444  21200796.4384   21200800.1014
   2754898.38949   2146674.58044  21708896.4204   21708898.3144
   7386916.13249   5756037.24644  22979953.2724   22979957.6304
  10437501.70647                  24965454.7764
  -2799869.28749  -2181711.39944  23438323.5444   23438330.0524
  -3665884.76249  -2856526.92544  23289817.5024   23289825.6934
 98 12  1  0 16  0.0000000  0  7G27G19G13G31G18G15G 7
  -3575167.21549  -2785840.56945  20099211.2034   20099213.6004
   4033021.68049   3142616.05044  21212555.4364   21212559.4594
   2810317.59149   2189858.36444  21719442.0104   21719444.5014
   7483780.25449   5831515.76344  22998385.8604   22998390.2144
  10551484.74848   8221928.92144  24987145.5514   24987156.4734
  -2872433.14149  -2238254.55344  23424515.2244   23424520.4184
  -3764627.68049  -2933469.27044  23271027.6624   23271035.1534
 98 12  1  0 16 30.0000000  0  7G27G19G13G31G18G15G 7
  -3595319.25349  -2801543.41645  20095376.5274   20095378.9314
   4095170.35649   3191043.59344  21224382.0644   21224385.9464
   2866201.57849   2233404.31644  21730076.3234   21730078.7234
   7580924.46049   5907212.53044  23016871.8164   23016876.5234
  10665367.67548   8310668.85144  25008816.3504   25008826.7754
  -2944674.26649  -2294546.25244  23410767.8794   23410772.7134
  -3863210.48249  -3010286.80244  23252267.6544   23252274.1994
 98 12  1  0 17  0.0000000  0  7G27G19G13G31G18G15G 7
  -3615009.34749  -2816886.30645  20091629.5434   20091632.0674
   4157687.83549   3239758.51944  21236278.8964   21236282.1884
   2922555.14449   2277316.17144  21740800.4284   21740802.9314
   7678334.72349   5983116.60944  23035408.3554   23035412.8194
  10779154.57548   8399333.96244  25030468.8784   25030478.3104
  -3016589.27949  -2350583.84044  23397083.4354   23397087.6954
  -3961632.35849  -3086978.90244  23233538.7074   23233545.3884
 98 12  1  0 17 30.0000000  0  7G27G19G13G31G18G15G 7
  -3634241.59549  -2831872.43445  20087969.7124   20087972.3004
   4220571.08949   3288758.46444  21248245.4654   21248248.6884
   2979383.17949   2321597.74144  21751614.6414   21751616.8624
   7776013.03549   6059229.57544  23053995.7774   23053999.8704
  10892844.32348   8487923.35144  25052103.3724   25052112.0594
  -3088175.15349  -2406364.95044  23383461.2854   23383465.4534
  -4059870.50649  -3163527.81044  23214844.7624   23214851.2794
 98 12  1  0 18  0.0000000  0  7G27G19G13G31G18G15G 7
  -3653013.04949  -2846499.50245  20084397.4824   20084400.1424
   4283815.46349   3338039.80744  21260280.6644   21260283.7694
   3036700.87949   2366260.87044  21762521.8224   21762524.2064
   7873959.10049   6135551.16544  23072634.1104   23072637.2914
  11006453.36948   8576449.91644  25073722.4704   25073730.9094
  -3159428.87549  -2461887.23244  23369902.0014   23369906.6584
  -4157907.03949  -3239919.60244  23196189.0684   23196195.8444
 98 12  1  0 18 30.0000000  0  7G27G19G13G31G18G15G 7
  -3671319.04549  -2860763.87545  20080913.8574   20080916.3304
   4347435.40049   3387613.79644  21272387.0704   21272390.2064
   3094519.93149   2411314.66544  21773524.1444   21773526.5554
   7972184.51149   6212090.44544  23091325.8984   23091330.7794
  11120004.25248   8664931.14144  25095330.6164   25095340.2964
  -3230346.92949  -2517147.96644  23356406.7714   23356410.1164
  -4255729.35249  -3316144.45644  23177574.0614   23177580.6374
 98 12  1  0 19  0.0000000  0  7G27G19G13G31G18G15G 7
  -3689153.76949  -2874661.02045  20077519.9224   20077522.4764
   4411444.84749   3437491.29644  21284567.5814   21284570.6784
   3152843.97549   2456761.96144  21784623.0344   21784625.2174
   8070684.02149   6288843.29944  23110070.1314   23110075.0894
  11233493.59248   8753364.43044  25116927.4104   25116932.3844
  -3300926.31449  -2572144.76644  23342975.8894   23342980.6954
  -4353322.11549  -3392190.44844  23159002.5524   23159008.8964
 98 12  1  0 19 30.0000000  0  6G19G27G13G31G15G 7
   4475839.51949   3487668.97144  21296821.5004   21296824.6064
  -3706521.06049  -2888193.93145  20074215.0384   20074217.4524
   3211663.83449   2502595.60944  21795816.3964   21795818.4844
   8169456.73149   6365809.02944  23128866.1144   23128870.3964
  -3371163.92449  -2626875.25644  23329609.8354   23329614.8624
  -4450675.56549  -3468049.96944  23140476.2934   23140482.9804
 98 12  1  0 20  0.0000000  0  6G27G19G13G31G15G 7
  -3723422.36749  -2901363.74045  20070998.9094   20071001.5324
   4540622.04349   3538148.87244  21309149.2744   21309152.4294
   3270972.63149   2548810.24744  21807102.7204   21807104.5604
   8268491.41349   6442978.87344  23147711.8554   23147715.0204
  -3441056.60949  -2681336.97444  23316309.7234   23316313.8614
  -4547794.40049  -3543726.69044  23121995.0884   23122001.3594
 98 12  1  0 20 30.0000000  0  6G27G19G13G31G15G 7
  -3739858.02249  -2914170.70245  20067871.1434   20067873.7734
   4605801.32549   3588937.94044  21321552.3254   21321555.7904
   3330758.86049   2595396.90644  21818479.9164   21818482.1434
   8367770.55349   6520339.18744  23166604.0294   23166608.2014
  -3510601.25049  -2735527.48244  23303076.0704   23303080.9114
  -4644684.55049  -3619225.22244  23103557.1224   23103562.4894
 98 12  1  0 21  0.0000000  0  7G27G19G13G31G26G15G 7
  -3755828.73749  -2926615.37545  20064832.0094   20064834.6464
   4671381.45149   3640039.35444  21334031.7544   21334034.9374
   3391017.35749   2642351.56944  21829946.4654   21829948.8554
   8467265.06149   6597867.35144  23185536.8684   23185541.1224
        -0.56456        -0.08454  24044258.5414   24044267.9744
  -3579794.40949  -2789444.09444  23289909.0004   23289912.5034
  -4741361.88549  -3694557.94244  23085159.9364   23085166.0984
 98 12  1  0 21 30.0000000  0  7G27G19G13G31G26G15G 7
  -3771329.14649  -2938693.57545  20061882.4464   20061885.0544
   4737348.01349   3691441.89044  21346584.7734   21346587.9974
   3451740.05849   2689667.94744  21841501.3694   21841504.1874
   8566978.01649   6675565.72744  23204511.4924   23204516.9244
    -67136.38746    -52313.56744  24031482.1714   24031486.9454
  -3648632.89749  -2843084.35144  23276808.9574   23276813.7494
  -4837837.04249  -3769733.14344  23066801.1104   23066807.2164
 98 12  1  0 22  0.0000000  0  7G27G19G13G31G26G15G 7
  -3786337.40749  -2950388.28045  20059026.4864   20059029.1864
   4803695.83949   3743141.51344  21359210.4934   21359213.6944
   3512927.15249   2737346.19644  21853144.7284   21853146.9794
   8666901.78849   6753428.37944  23223526.2384   23223530.6004
   -133888.28646   -104327.85944  24018778.6314
  -3717114.08449  -2896446.18744  23263776.9304   23263781.8604
  -4934119.41149  -3844758.12944  23048478.9764   23048484.3484
 98 12  1  0 22 30.0000000  0  7G27G19G13G31G26G15G 7
  -3800836.42649  -2961686.17545  20056267.4344   20056270.1754
   4870425.92849   3795139.00344  21371909.1174   21371912.0974
   3574578.54149   2785386.23144  21864876.5364   21864878.7854
   8767035.83649   6831454.87244  23242581.4154   23242586.3664
   -200258.61946                  24006148.6414
  -3785234.63449  -2949527.01244  23250813.6124   23250818.1394
  -5030210.52249  -3919634.10344  23030193.1814   23030199.0874
 98 12  1  0 23  0.0000000  0  7G27G19G13G31G26G15G 7
  -3814829.49449  -2972589.81945  20053604.6004   20053607.2944
   4937521.50149   3847421.28044  21384676.7674   21384679.8404
   3636684.45149   2833780.43744  21876695.2014   21876697.2894
   8867396.40349   6909657.88344  23261679.6744   23261683.7544
   -266253.32046   -207469.12944  23993589.4674   23993596.8234
  -3852991.33249  -3002324.31144  23237919.8444   23237924.8594
  -5126106.40549  -3994357.95044  23011944.6214   23011950.5624
 98 12  1  0 23 30.0000000  0  7G27G19G13G31G26G15G 7
  -3828328.73149  -2983108.66345  20051035.5904   20051038.2194
   5004967.42249   3899976.56044  21397511.1574   21397514.3094
   3699236.83649   2882522.53844  21888598.5364   21888600.7344
   8968001.29049   6988051.25444  23280824.3594   23280828.6254
   -331855.04146   -258587.26644  23981106.4654   23981118.1314
  -3920381.08049  -3054835.68744  23225095.9344   23225101.7204
  -5221792.09449  -4068918.03144  22993735.8384   22993742.4764
 98 12  1  0 24  0.0000000  0  7G27G19G13G31G26G15G 7
  -3841351.72349  -2993256.41045  20048557.2814   20048560.0864
   5072770.89349   3952810.44544  21410413.4744   21410416.7534
   3762233.12249   2931610.53644  21900586.2964   21900588.7264
   9068836.31849   7066623.96744  23300012.4904   23300016.5154
   -397039.21946   -309380.03844  23968702.8454   23968709.7454
  -3987400.95949  -3107058.84144  23212342.5254   23212347.8434
  -5317260.41949  -4143308.74744  22975568.3994   22975574.8484
 98 12  1  0 24 30.0000000  0  7G27G19G13G31G26G15G 7
  -3853924.43149  -3003053.28945  20046164.8884   20046167.5174
   5140933.49749   4005924.17444  21423384.3924   21423387.8104
   3825660.89949   2981034.75944  21912655.9964   21912658.5644
   9169913.15249   7145385.10744  23319246.6084   23319252.7724
   -461773.22746   -359821.98744  23956383.7634   23956393.4434
  -4054047.83449  -3158991.36644  23199660.2154   23199665.7064
  -5412505.62549  -4217525.62744  22957443.5764   22957449.4584
 98 12  1  0 25  0.0000000  0  7G27G19G13G31G26G15G 7
  -3866054.59949  -3012505.33045  20043856.8224   20043859.1724
   5209458.06849   4059319.94944  21436424.4704   21436427.5804
   3889520.15649   3030795.20344  21924807.8884   21924809.9424
   9271235.65749   7224337.66344  23338527.5074   23338531.4954
   -526032.43747   -409893.96144  23944155.6254   23944162.7734
  -4120318.67849  -3210630.86244  23187049.4914   23187055.4594
  -5507526.51949  -4291567.73544  22939361.6554   22939367.5304
 98 12  1  0 25 30.0000000  0  7G27G19G13G31G26G15G 7
  -3877735.91149  -3021607.60945  20041633.8644   20041636.2064
   5278367.71549   4113015.78344  21449537.6704   21449540.6714
   3953818.43349   3080897.74444  21937043.3694   21937045.2194
   9372781.75949   7303464.44044  23357851.0284   23357856.8534
   -589814.11347   -459593.83244  23932018.7014   23932028.1334
  -4186210.49549  -3261975.02144  23174510.7374   23174516.3364
  -5602315.37949  -4365429.05744  22921323.8844   22921329.8104
 98 12  1  0 26  0.0000000  0  7G27G19G13G31G26G15G 7
  -3888953.92049  -3030348.87645  20039499.1174   20039501.4064
   5347675.76249   4167022.05444  21462726.5674   21462729.5484
   4018553.35149   3131340.52444  21949361.9874   21949364.0124
   9474538.65049   7382755.45944  23377214.7364   23377218.8954
   -653129.92147   -508930.72244  23919970.4854   23919976.2364
  -4251719.88949  -3313021.19944  23162044.0914   23162049.9414
  -5696877.30149  -4439113.53944  22903329.5264   22903334.7234
 98 12  1  0 26 30.0000000  0  7G27G19G13G31G26G15G 7
  -3899691.62349  -3038715.87845  20037455.8044   20037457.9874
   5417385.69549   4221341.47344  21475991.8944   21475994.8804
   4083729.40749   3182127.05244  21961764.5674   21961766.6854
   9576518.93249   7462220.56044  23396620.9354   23396625.0014
   -715994.72448   -557916.14644  23908007.3674   23908013.2144
  -4316843.93949  -3363767.11444  23149651.2394   23149657.7154
  -5791209.51949  -4512619.06844  22885378.6684   22885384.2614
 98 12  1  0 27  0.0000000  0  7G27G19G13G31G26G15G 7
  -3909939.03449  -3046700.83445  20035505.6734   20035507.9334
   5487492.66149   4275970.27344  21489332.8314   21489335.7334
   4149358.57849   3233266.64844  21974253.8234   21974256.0294
   9678702.30449   7541843.91744  23416065.8564   23416070.6184
   -778437.52748   -606572.73844  23896124.7614   23896130.1704
  -4381579.75649  -3414210.51244  23137332.1944   23137338.8384
  -5885302.96249  -4585938.53844  22867473.5284   22867478.1914
 98 12  1  0 27 30.0000000  0  7G27G19G13G31G26G15G 7
  -3919698.59549  -3054305.64445  20033648.3184   20033650.6344
   5557995.00449   4330907.15844  21502749.0494   21502752.0984
   4215432.17949   3284752.54744  21986827.3134   21986829.5664
   9781074.91649   7621614.76044  23435546.9464   23435552.2364
   -840493.25848   -654927.72344  23884315.7044   23884320.4044
  -4445924.29649  -3464349.03044  23125087.5114   23125093.7034
  -5979152.23549  -4659067.77944  22849614.4044   22849619.2144
 98 12  1  0 28  0.0000000  0  7G27G19G13G31G26G15G 7
  -3928962.91249  -3061524.55145  20031885.4764   20031887.7044
   5628866.76149   4386131.89844  21516235.5324   21516238.4934
   4281953.25649   3336587.13544  21999485.8084   21999487.9914
   9883649.31649   7701542.86244  23455066.4814   23455070.1254
   -902149.34048   -702971.27844  23872582.2144   23872588.5704
  -4509874.55649  -3514180.32044  23112918.2274   23112924.3234
  -6072766.33849  -4732013.76944  22831800.2624   22831805.5024
 98 12  1  0 28 30.0000000  0  7G27G19G13G31G26G15G 7
  -3937732.66449  -3068358.08345  20030216.6834   20030218.9004
   5700103.66649   4441641.17744  21529791.4274   21529794.3424
   4348936.67049   3388781.98344  22012232.2324   22012234.5514
   9986438.85049   7781638.57344  23474626.6584   23474629.8824
   -963391.53449   -750692.32444  23860928.9144   23860934.0044
  -4573427.59649  -3563702.08844  23100824.4874   23100830.6614
  -6166135.73849  -4804769.08444  22814032.7484   22814038.3604
 98 12  1  0 29  0.0000000  0  7G27G19G13G31G26G15G 7
  -3946006.31749  -3074805.04845  20028642.1744   20028644.3944
   5771701.35049   4497431.58244  21543415.7744   21543418.9924
   4416373.70749   3441330.31044  22025065.1824   22025067.2854
  10089427.90149   7861889.73744  23494224.8864   23494228.0654
  -1024216.08849   -798087.95144  23849353.9194   23849358.6724
  -4636580.41249  -3612911.99344  23088807.1724   23088812.3454
  -6259264.46649  -4877336.87344  22796310.7944   22796315.8184
 98 12  1  0 29 30.0000000  0  7G27G19G13G31G26G15G 7
  -3953777.59349  -3080860.55045  20027163.2954   20027165.4754
   5843657.43249   4553501.25544  21557108.5704   21557111.7754
   4484256.37649   3494225.89244  22037983.3074   22037985.4724
  10192621.25649   7942300.10244  23513861.9494   23513865.2764
  -1084603.37349   -845142.83044  23837862.0334   23837869.9744
  -4699329.87649  -3661807.60744  23076866.4484   23076871.7264
  -6352162.39949  -4949724.80944  22778632.9964   22778637.6714
 98 12  1  0 30  0.0000000  0  7G27G19G13G31G26G15G 7
  -3961041.96149  -3086521.05845  20025780.7264   20025782.9774
   5915965.00849   4609844.82344  21570868.1004   21570871.4964
   4552588.57849   3547471.75944  22050986.5584   22050988.1914
  10296029.60749   8022878.00444  23533540.0134   23533544.4304
  -1144522.00449   -891832.54544  23826460.1564   23826465.3784
  -4761673.24049  -3710386.78544  23065002.9494   23065008.3694
  -6444831.24049  -5021934.21844  22760998.4524   22761003.8964
 98 12  1  0 30 30.0000000  0  7G27G19G13G31G26G15G 7
  -3967803.44849  -3091789.71345  20024493.9424   20024496.2594
   5988636.52249   4666471.97944  21584697.1694   21584700.5634
   4621351.72049   3601053.42144  22064071.6454   22064073.7144
  10399633.22649   8103608.09344  23553255.3304   23553260.5724
  -1203991.04449   -938171.92244  23815143.6494   23815149.4074
  -4823607.26749  -3758646.99744  23053217.1044   23053222.1384
  -6537263.27149  -5093959.10644  22743408.9834   22743413.5234
 98 12  1  0 31  0.0000000  0  7G27G19G13G31G26G15G 7
  -3974063.87049  -3096667.92645  20023302.5414   20023304.8144
   6061662.80249   4723375.58544  21598593.3984   21598596.7774
   4690528.49549   3654957.39044  22077235.1764   22077237.5734
  10503418.17249   8184479.45644  23573005.3934   23573008.5714
  -1263012.06649   -984162.18244  23803912.4654   23803917.2204
  -4885129.08849  -3806586.00144  23041509.8954   23041515.2244
  -6629472.22749  -5165810.14344  22725861.8224   22725867.0274
 98 12  1  0 31 30.0000000  0  7G27G19G13G31G26G15G 7
  -3979828.93849  -3101160.15045  20022205.5504   20022207.6024
   6135038.47449   4780551.44644  21612556.3174   21612559.7524
   4760121.54649   3709185.73044  22090477.9424   22090481.0354
  10607393.86649   8265499.44644  23592791.4764   23592794.6464
  -1321575.26249  -1029795.70544  23792767.6484   23792774.3184
  -4946235.92649  -3854201.64944  23029881.7204   23029886.7244
  -6721452.56549  -5237483.02444  22708358.3744   22708362.9804
 98 12  1  0 32  0.0000000  0  7G27G19G13G31G26G15G 7
  -3985099.37549  -3105266.94845  20021202.7024   20021204.7934
   6208767.87649   4838002.93644  21626586.5274   21626589.6954
   4830125.22149   3763734.03344  22103799.0054   22103802.0914
  10711558.61649   8346666.77844  23612613.2274   23612616.4224
  -1379684.74949  -1075075.70244  23781709.6324   23781715.7464
  -5006924.82949  -3901491.62544  23018332.8644   23018338.3674
  -6813192.92149  -5308968.90144  22690900.6274   22690905.8914
 98 12  1  0 32 30.0000000  0  7G27G19G13G31G26G15G 7
  -3989873.07349  -3108986.67745  20020294.3774   20020296.3794
   6282847.60049   4895727.40744  21640683.6534   21640686.9924
   4900521.65649   3818588.39244  22117195.3034   22117198.3074
  10815902.34249   8427973.54644  23632469.2234   23632472.5944
  -1437353.54049  -1120012.28644  23770735.6294   23770740.9364
  -5067192.84749  -3948453.65344  23006863.9474   23006869.7944
  -6904689.04449  -5380264.45944  22673489.7054   22673494.7624
 98 12  1  0 33  0.0000000  0  7G27G19G13G31G26G15G 7
  -3994148.07749  -3112317.81345  20019480.6774   20019482.8774
   6357269.96549   4953718.87144  21654846.0384   21654849.2214
   4971311.61549   3873749.39344  22130666.3064   22130668.7604
  10920437.00749   8509429.13544  23652361.1054   23652365.2354
  -1494564.66249  -1164592.22544  23759848.6344   23759855.3674
  -5127037.04649  -3995085.41244  22995475.9514   22995481.3184
  -6995931.61649  -5451362.44144  22656126.7694   22656131.8644
 98 12  1  0 33 30.0000000  0  7G27G19G13G31G26G15G 7
  -3997919.47749  -3115256.53145  20018763.0294   20018765.3054
   6432043.33349   5011983.84744  21669074.8654   21669077.9314
   5042482.19349   3929206.98144  22144210.0574   22144211.8884
  11025153.76749   8591026.57544  23672288.1864   23672293.1334
  -1551328.67249  -1208823.77544  23749046.2894   23749053.6074
  -5186454.66649  -4041384.77944  22984169.1974   22984173.1734
  -7086901.95449  -5522248.29144  22638815.7974   22638819.9934
 98 12  1  0 34  0.0000000  0  7G27G19G13G31G26G15G 7
  -4001177.90249  -3117795.52745  20018143.0544   20018145.1844
   6507163.45549   5070519.02044  21683369.6684   21683372.7994
   5114020.68449   3984951.24544  22157823.5354   22157826.1594
  11130038.25349   8672754.70544  23692247.0764   23692250.2754
  -1607657.12549  -1252715.92644  23738327.4204   23738332.6644
  -5245442.79149  -4087349.45444  22972943.7734   22972948.3364
  -7177592.93449  -5592916.45744  22621557.5914   22621562.3474
 98 12  1  0 34 30.0000000  0  7G27G19G13G31G26G15G 7
  -4003918.08949  -3119930.70245  20017621.5994   20017623.6004
   6582633.59049   5129326.92544  21697731.1754   21697734.1664
   5185928.33349   4040983.17644  22171506.8344   22171509.2074
  11235089.94849   8754613.14844  23712237.7794   23712241.5314
  -1663546.76549  -1296266.14644  23727692.0284   23727698.2164
  -5303998.37149  -4132977.07344  22961800.7894   22961805.5914
  -7268002.56449  -5663365.39344  22604352.6234   22604357.7694
 98 12  1  0 35  0.0000000  0  7G27G19G13G31G26G15G 7
  -4006139.48249  -3121661.61745  20017198.8304   20017200.9294
   6658463.42349   5188415.11444  21712161.0874   21712164.0044
   5258219.49849   4097313.94144  22185263.3384   22185266.0304
  11340311.39249   8836603.86244  23732260.3174   23732264.3174
  -1718982.98749  -1339463.05244  23717142.7314   23717148.0724
  -5362118.62049  -4178265.47044  22950741.0344   22950744.3294
  -7358132.55449  -5733596.43244  22587201.2794   22587206.5464
 98 12  1  0 35 30.0000000  0  7G27G19G13G31G26G15G 7
  -4007851.65549  -3122995.74145  20016872.9124   20016874.9364
   6734654.74549   5247784.98144  21726659.6854   21726662.7374
   5330899.89049   4153948.01344  22199093.5444   22199096.3414
  11445692.07849   8918718.65544  23752313.7114   23752318.1604
  -1773971.39849  -1382311.01344  23706678.4004   23706684.4214
  -5419800.98149  -4223212.66044  22939764.3914   22939768.3314
  -7447992.82849  -5803617.31244  22570101.1994   22570106.9194
 98 12  1  0 36  0.0000000  0  7G27G19G13G31G26G15G 7
  -4009060.63249  -3123937.76445  20016642.9764   20016645.0374
   6811208.14049   5307436.98344  21741227.4774   21741230.5394
   5403988.22049   4210899.95244  22213001.9454   22213004.0644
  11551236.06449   9000960.72144  23772397.9124   23772402.9504
  -1828496.69749  -1424798.10944  23696302.7474   23696308.0994
  -5477042.69849  -4267816.51244  22928871.7534   22928875.6544
  -7537593.19049  -5873435.65344  22553051.0894   22553056.5224
 98 12  1  0 36 30.0000000  0  7G27G19G13G31G26G15G 7
  -4009771.81249  -3124491.89045  20016507.8664   20016509.7074
   6888135.21849   5367380.16544  21755866.0194   21755868.9444
   5477492.92549   4268176.33944  22226989.6804   22226992.5574
  11656947.21549   9083333.05144  23792514.1544   23792519.3514
  -1882538.01049  -1466908.05744  23686018.8254   23686024.5304
  -5533840.58249  -4312074.49844  22918063.1164   22918067.2644
  -7626949.15549  -5943063.56044  22536047.1924   22536052.5674
 98 12  1  0 37  0.0000000  0  7G27G19G13G31G26G15G 7
  -4009991.18149  -3124662.78745  20016466.1194   20016468.0414
   6965424.33349   5427605.45644  21770573.2944   21770576.2574
   5551411.41049   4325775.15044  22241056.0844   22241058.2734
  11762819.64249   9165831.05844  23812661.1034   23812664.1714
  -1936093.92049  -1508639.76744  23675827.2914   23675832.2874
  -5590192.12949  -4355984.70044  22907339.7914   22907343.2624
  -7716070.26449  -6012508.47844  22519087.8714   22519093.2744
 98 12  1  0 37 30.0000000  0  7G27G19G13G31G26G15G 7
  -4009714.49549  -3124447.14745  20016518.4464   20016520.2674
   7043071.58849   5488109.82144  21785349.0664   21785352.1094
   5625739.37649   4383693.04444  22255200.1384   22255202.3904
  11868849.28049   9248451.57244  23832838.0634   23832843.5564
  -1989173.97249  -1550000.69344  23665726.0554   23665732.4064
  -5646094.36749  -4399544.79444  22896702.0414   22896707.4584
  -7804953.46949  -6081768.00544  22502173.9574   22502179.8104
 98 12  1  0 38  0.0000000  0  7G27G19G13G31G26G15G 7
  -4008924.34649  -3123831.40745  20016668.9504   20016670.7344
   7121076.87649   5548893.16444  21800193.0564   21800195.9094
   5700470.69749   4441925.24644  22269420.7344   22269423.4364
  11975044.96849   9331201.46344  23853046.6884   23853051.2394
  -2041764.73349  -1590980.33544  23655718.4394   23655723.7124
  -5701544.58949  -4442752.67244  22886149.9484   22886154.2214
  -7893592.04949  -6150836.91344  22485306.5914   22485312.2224
 98 12  1  0 38 30.0000000  0  7G27G19G13G31G26G15G 7
  -4007616.11849  -3122811.97045  20016917.7914   20016919.6494
   7199428.34049   5609946.26244  21815103.0194   21815105.9564
   5775594.46349   4500463.24644  22283716.2034   22283719.2294
  12081407.10749   9414081.02944  23873286.6724   23873289.9194
  -2093868.71249  -1631580.66044  23645803.6684   23645809.3654
  -5756540.24349  -4485606.35044  22875684.4704   22875687.4904
  -7981973.37649  -6219705.35144  22468488.0594   22468493.0464
 98 12  1  0 39  0.0000000  0  7G27G19G13G31G26G15G 7
  -4005794.14149  -3121392.21345  20017264.4934   20017266.3204
   7278125.20549   5671268.49844  21830078.5644   21830081.5944
   5851102.90049   4559300.99344  22298084.9384   22298087.5834
  12187927.12549   9497083.61444  23893556.7124   23893561.7474
  -2145500.35249  -1671812.95744  23635978.3884   23635982.7964
  -5811078.46149  -4528103.58544  22865306.1844   22865309.3964
  -8070082.94349  -6288362.03244  22451721.2434   22451726.3104
 98 12  1  0 39 30.0000000  0  7G27G19G13G31G26G15G 7
  -4003451.34049  -3119566.62345  20017710.3664   20017712.0694
   7357170.96849   5732862.59344  21845120.3904   21845123.0334
   5926984.53249   4618429.54044  22312525.0434   22312527.1454
  12294593.58449   9580200.30544  23913853.9444   23913858.0634
  -2196660.33549  -1711677.74844  23626242.4814   23626247.6654
  -5865156.19849  -4570242.01344  22855015.6164   22855019.8494
  -8157903.97649  -6356793.88344  22435009.5064   22435014.6244
 98 12  1  0 40  0.0000000  0  7G27G19G13G31G26G15G 7
  -4000579.43349  -3117328.74245  20018256.7434   20018258.4544
   7436556.75849   5794721.64444  21860226.8374   21860229.8844
   6003233.56049   4677844.36244  22327035.0964   22327036.7694
  12401387.70448   9663416.44844  23934176.6184   23934180.8324
  -2247348.77349  -1751175.08944  23616596.5594   23616602.2514
  -5918770.95749  -4612019.67244  22844813.2244   22844817.1614
  -8245434.68949  -6424999.50544  22418352.8464   22418358.1194
 98 12  1  0 40 30.0000000  0  7G27G19G13G31G26G15G 7
  -3997178.79049  -3114678.86045  20018903.7664   20018905.5974
   7516281.55849   5856844.85644  21875397.9344   21875400.9974
   6079847.15249   4737543.25644  22341614.1484   22341616.1184
  12508295.41948   9746721.15244  23954520.7914   23954526.7434
  -2297576.90049  -1790313.76244  23607038.6744   23607044.9764
  -5971920.03649  -4653434.45944  22834699.1524   22834702.7024
  -8332683.00649  -6492985.07244  22401750.0384   22401754.5704
 98 12  1  0 41  0.0000000  0  7G27G19G13G31G26G15G 7
  -3993241.30149  -3111610.66045  20019652.8974   20019654.6994
   7596348.81649   5919234.92844  21890634.1724   21890637.3964
   6156821.32749   4797523.12944  22356261.7584   22356263.5514
  12615316.90648   9830114.54844  23974886.1224   23974889.3204
  -2347336.81649  -1829087.59544  23597569.7454   23597575.4714
  -6024601.00549  -4694484.49044  22824674.1694   22824677.9874
  -8419662.46749  -6560761.13444  22385198.5454   22385202.9764
 98 12  1  0 41 30.0000000  0  7G27G19G13G31G26G15G 7
  -3988746.40249  -3108108.11445  20020508.2154   20020510.1164
   7676745.93649   5981882.02744  21905933.4454   21905936.6194
   6234157.59849   4857785.15344  22370978.2554   22370980.3964
  12722456.97548   9913600.29644  23995274.1814   23995278.0124
  -2396629.51149  -1867497.36444  23588189.2184   23588195.1554
  -6076811.14649  -4735167.64344  22814738.9524   22814742.0044
  -8506373.28849  -6628327.87644  22368698.1194   22368702.0414
 98 12  1  0 42  0.0000000  0  7G27G19G13G31G26G15G 7
  -3983708.24949  -3104182.25545  20021467.0904   20021469.0524
   7757474.52449   6044787.41544  21921295.5744   21921298.4694
   6311869.65949   4918339.99944  22385765.9064   22385768.6514
  12829736.20948   9997194.43744  24015688.7054   24015690.3904
  -2445445.82649  -1905535.94044  23578899.8484   23578904.6024
  -6128548.02149  -4775482.01744  22804893.7244   22804898.0674
  -8592823.70349  -6695691.71144  22352247.1904   22352250.9634
 98 12  1  0 42 30.0000000  0  7G27G19G13G31G26G15G 7
  -3978152.33949  -3099852.95045  20022524.2714   20022526.3244
   7838534.29549   6107950.86444  21936720.9394   21936724.4014
   6389948.50749   4979180.65644  22400623.7544   22400626.1324
  12937174.48548  10080912.55544  24036133.4774   24036137.3174
  -2493774.48349  -1943194.53444  23569703.1654   23569708.2834
  -6179808.85849  -4815425.43744  22795138.9274   22795142.7474
  -8679007.74549  -6762847.98344  22335846.7554   22335850.1604
 98 12  1  0 43  0.0000000  0  7G27G19G13G31G26G15G 7
  -3972089.98149  -3095129.01245  20023677.8754   20023679.7924
   7919920.04749   6171368.31844  21952208.3614   21952211.3844
   6468384.12949   5040299.32244  22415549.7264   22415552.4454
  13044765.95647  10164750.05944  24056607.2444   24056613.4384
  -2541610.72249  -1980469.42744  23560600.2994   23560605.2724
  -6230591.06349  -4854995.90644  22785475.0794   22785478.4654
  -8764908.48549  -6829783.50544  22319500.3104   22319504.5504
 98 12  1  0 43 30.0000000  0  7G27G19G13G31G26G15G 7
  -3965523.87249  -3090012.53845  20024927.3574   20024929.3014
   8001630.82649   6235039.03944  21967757.3814   21967760.5564
   6547168.75949   5101689.94344  22430542.2454   22430544.6994
  13152500.32347  10248698.88544  24077108.6534   24077111.0364
  -2588961.30549  -2017365.88144  23551589.7024   23551594.9714
  -6280891.93249  -4894191.30944  22775903.1494   22775906.9644
  -8850509.06549  -6896485.14744  22303211.0434   22303215.1374
 98 12  1  0 44  0.0000000  0  7G27G19G13G31G26G15G 7
  -3958469.58149  -3084515.66445  20026269.5984   20026271.7904
   8083672.34449   6298967.47244  21983369.1334   21983372.0194
   6626291.67549   5163344.15844  22445599.0994   22445601.1384
  13260376.34147  10332758.09444  24097636.9944   24097638.0604
  -2635807.40049  -2053869.23344  23542674.8944   23542681.6334
  -6330709.04349  -4933009.75244  22766423.1694   22766426.3784
  -8935808.66349  -6962952.26044  22286978.8294   22286982.9814
 98 12  1  0 44 30.0000000  0  7G27G19G13G31G26G15G 7
  -3950903.46849  -3078619.96845  20027709.3344   20027711.3314
   8166042.46549   6363151.96044  21999043.6034   21999046.7494
   6705739.11849   5225251.25244  22460717.5154   22460719.1584
  13368365.63947  10416905.57144  24118186.3794   24118194.8184
  -2682154.14249  -2089983.49844  23533855.3864   23533860.2424
  -6380039.77949  -4971449.21544  22757035.3344   22757039.8384
  -9020809.09849  -7029186.25744  22270803.6554   22270807.4834
 98 12  1  0 45  0.0000000  0  7G27G19G13G31G26G15G 7
  -3942800.09549  -3072305.62545  20029251.4454   20029253.1604
   8248752.55749   6427601.36544  22014782.7014   22014785.8154
   6785512.27249   5287412.14144  22475897.7664   22475899.9224
  13476454.87347  10501130.87544  24138755.3604   24138760.4034
  -2728005.95349  -2125712.09344  23525129.7394   23525136.0854
  -6428881.57149  -5009507.67844  22747741.1854   22747745.3204
  -9105514.63549  -7095190.47444  22254684.5884   22254688.2344
 98 12  1  0 45 30.0000000  0  7G27G19G13G31G26G15G 7
  -3934151.81449  -3065566.67945  20030897.3104   20030899.0984
   8331808.96349   6492320.63044  22030587.6664   22030590.6994
   6865621.49049   5349834.90444  22491141.8034   22491144.2934
  13584655.16947  10585442.74044  24159345.6144   24159347.7844
  -2773367.67949  -2161058.79544  23516497.5994   23516501.6174
  -6477232.07949  -5047183.30544  22738540.5234   22738544.4254
  -9189931.13649  -7160969.47144  22238620.4554   22238624.3404
 98 12  1  0 46  0.0000000  0  7G27G19G13G31G26G15G 7
  -3924964.02349  -3058407.33545  20032645.6584   20032647.3954
   8415206.65749   6557305.82644  22046457.9014   22046461.0274
   6946070.10149   5412522.13244  22506450.5464   22506452.9204
  13692961.80546  10669837.46844  24179955.4304   24179960.4374
  -2818234.79749  -2196020.09644  23507960.0564   23507963.8134
  -6525088.80749  -5084474.17944  22729433.8324   22729437.3204
  -9274063.85549  -7226527.34044  22222610.6204   22222614.6074
 98 12  1  0 46 30.0000000  0  7G27G19G13G31G26G15G 7
  -3915237.94249  -3050828.54445  20034496.3504   20034498.1234
   8498937.52549   6622550.63844  22062391.3444   22062394.4764
   7026863.79949   5475478.25544  22521825.1584   22521827.4864
  13801366.27046  10754308.45544  24200583.3074   24200584.7764
  -2862623.09649  -2230608.29644  23499513.0874   23499519.5434
  -6572449.10449  -5121378.22544  22720421.1524   22720425.0714
  -9357901.59149  -7291855.34644  22206656.6954   22206661.1994
 98 12  1  0 47  0.0000000  0  7G27G19G13G31G26G15G 7
  -3904988.05649  -3042841.59545  20036446.6274   20036448.7334
   8583001.30549   6688054.86244  22078388.2364   22078391.3684
   7108000.56349   5538701.69944  22537265.1284   22537267.5424
  13909880.33246  10838864.83244  24221232.8574   24221239.4734
  -2906535.57649  -2264825.72544  23491156.8614   23491161.2414
  -6619310.24649  -5157893.32144  22711503.9074   22711507.0864
  -9441426.01149  -7356939.21444  22190762.5624   22190766.8784
 98 12  1  0 47 30.0000000  0  7G27G19G13G31G26G15G 7
  -3894222.00749  -3034452.43945  20038495.3514   20038497.3614
   8667377.36449   6753802.42244  22094444.5664   22094447.6284
   7189477.86349   5602190.49944  22552769.9154   22552772.1154
  14018502.25746  10923505.32344  24241903.2184   24241906.6404
  -2949968.60649  -2298669.54144  23482891.8094   23482897.0944
  -6665670.08249  -5194017.78744  22702681.7984   22702685.5294
  -9524637.06549  -7421778.90044  22174927.8024   22174931.5874
 98 12  1  0 48  0.0000000  0  7G27G19G13G31G26G15G 7
  -3882940.52449  -3025661.64845  20040642.2164   20040644.2414
   8752061.44849   6819790.00044  22110559.4264   22110562.5634
   7271290.70949   5665940.75744  22568338.1684   22568339.8604
  14127215.76846  11008217.20944  24262590.5074   24262594.6584
  -2992908.50749  -2332129.11544  23474720.9704   23474725.3224
  -6711526.10049  -5229749.66644  22693955.8454   22693958.3344
  -9607544.30849  -7486381.85344  22159151.0884   22159154.4904
 98 12  1  0 48 30.0000000  0  7G27G19G13G31G26G15G 7
  -3871142.75049  -3016468.55145  20042887.3494   20042889.2144
   8837059.23749   6886022.03044  22126733.7214   22126736.9644
   7353432.70849   5729947.49344  22583969.1014   22583971.7084
  14236026.65147  11093004.92444  24283296.6704   24283299.3634
  -3035350.93649  -2365201.03544  23466644.4194   23466647.9164
  -6756875.82349  -5265087.03744  22685326.0674   22685330.4614
  -9690150.84349  -7550750.48644  22143431.4434   22143435.2574
 98 12  1  0 49  0.0000000  0  7G27G19G13G31G26G15G 7
  -3858817.84449  -3006864.70245  20045232.6224   20045234.5144
   8922376.93749   6952503.33644  22142969.1174   22142972.4684
   7435895.85149   5794204.47644  22599661.3864   22599663.2704
  14344944.43447  11177875.94144  24304023.5944   24304027.6574
  -3077288.75249  -2397879.74144  23458663.2884   23458667.5004
  -6801716.89849  -5300028.05744  22676793.1054   22676796.0814
  -9772474.03949  -7614898.33444  22127765.6384   22127769.7024
 98 12  1  0 49 30.0000000  0  7G27G19G13G31G26G15G 7
  -3845961.23249  -2996846.53945  20047678.9774   20047681.0714
   9008016.27849   7019235.27344  22159265.6304   22159268.7984
   7518682.12149   5858713.23944  22615415.2054   22615417.3144
  14453971.36347  11262832.01644  24324771.4404   24324776.6464
  -3118708.33449  -2430154.62544  23450781.9374   23450785.7034
  -6846046.95349  -5334570.87744  22668357.2394   22668359.9554
  -9854527.60149  -7678836.07444  22112151.2804   22112154.9304
 98 12  1  0 50  0.0000000  0  7G27G19G13G31G26G15G 7
  -3832575.93549  -2986416.41145  20050226.1944   20050228.1524
   9093990.72449   7086228.33644  22175626.1794   22175629.5564
   7601786.58249   5923469.95244  22631229.5074   22631231.1054
  14563112.44748  11347877.04344  24345540.4154   24345545.6504
  -3159600.75349  -2462018.74144  23443000.5074   23443002.9044
  -6889864.00549  -5368713.95744  22660019.1364   22660022.3784
  -9936295.60249  -7742551.31144  22096591.2724   22096595.0294
 98 12  1  0 50 30.0000000  0  7G27G19G13G31G26G15G 7
  -3818651.79549  -2975566.40845  20052875.8434   20052877.8754
   9180292.48949   7153476.44944  22192048.9414   22192052.0264
   7685191.29949   5988460.62944  22647100.8034   22647102.6744
  14672380.40548  11433020.92544  24366333.1984   24366338.8804
  -3199979.30449  -2493482.45544  23435316.4324   23435319.5134
  -6933165.41249  -5402455.24644  22651779.1054   22651782.3184
 -10017756.10049  -7806026.92844  22081090.0454   22081093.9054
 98 12  1  0 51  0.0000000  0  7G27G19G13G31G26G15G 7
  -3804172.66949  -2964283.94845  20055631.1564   20055633.0744
   9266912.84349   7220972.82144  22208532.3764   22208535.9084
   7768896.25749   6053685.25644  22663028.9804   22663030.9544
  14781766.85148  11518257.17444  24387148.6644   24387154.6914
  -3239850.54249  -2524550.85144  23427728.6414   23427732.0934
  -6975949.13849  -5435793.13744  22643637.3714   22643641.1894
 -10098903.46649  -7869258.54844  22065648.3614   22065651.7534
 98 12  1  0 51 30.0000000  0  7G27G19G13G31G26G15G 7
  -3789136.64049  -2952567.53845  20058492.3234   20058494.1554
   9353834.59249   7288704.03844  22225072.8394   22225076.5424
   7852906.33349   6119147.64044  22679015.5024   22679017.5084
  14891248.86348  11603567.85544  24407982.4044   24407987.0874
  -3279202.24849  -2555214.41744  23420240.1044   23420243.3484
  -7018212.74349  -5468725.75644  22635594.9394   22635598.0654
 -10179724.05449  -7932235.53744  22050268.7244   22050272.1574
 98 12  1  0 52  0.0000000  0  7G27G19G13G31G26G15G 7
  -3773540.13749  -2940414.39445  20061460.1184   20061462.1734
   9441044.62449   7356659.89844  22241668.3434   22241672.0994
   7937215.53649   6184843.11044  22695059.1894   22695062.0904
  15000811.32949  11688941.20444  24428831.6554   24428835.8184
  -3318044.79249  -2585481.23144  23412848.9424   23412852.6454
  -7059953.76549  -5501251.16744  22627651.9354   22627655.1524
 -10260216.86449  -7994957.11744  22034951.3314   22034954.5374
 98 12  1  0 52 30.0000000  0  7G27G19G13G31G26G15G 7
  -3757374.63449  -2927817.87345  20064536.2834   20064538.4264
   9528534.27449   7424833.64544  22258317.0304   22258321.1094
   8021829.08949   6250775.73244  22711160.7264   22711163.5634
  15110439.79649  11774366.02344  24449693.0754   24449697.5014
  -3356392.11649  -2615362.19244  23405551.2284   23405555.4634
  -7101169.97249  -5533367.63644  22619808.5604   22619812.9964
 -10340408.67849  -8057444.15244  22019691.1614   22019694.4354
 98 12  1  0 53  0.0000000  0  7G27G19G13G31G26G15G 7
  -3740659.88249  -2914793.36745  20067717.0584   20067719.1974
   9616311.88549   7493231.76644  22275020.4674   22275025.4924
   8106764.48349   6316959.14344  22727323.6254   22727326.1664
  15220123.10049  11859833.50744  24470564.9884   24470569.9404
  -3394225.83449  -2644842.92644  23398351.3964   23398355.6814
  -7141859.18849  -5565073.45944  22612065.3704   22612068.7994
 -10420314.68949  -8119708.48644  22004485.5174   22004488.7134
 98 12  1  0 53 30.0000000  0  7G27G19G13G31G26G15G 7
  -3723421.04649  -2901360.48845  20070997.5014   20070999.5714
   9704391.96149   7561865.57144  22291781.8694   22291785.8524
   8192018.76149   6383391.03944  22743547.1744   22743549.4674
  15329857.66549  11945340.93544  24491446.2514   24491450.9354
  -3431531.28649  -2673912.03444  23391252.4784   23391257.5804
  -7182019.42849  -5596367.10344  22604422.9474   22604427.0484
 -10499929.44949  -8181745.87644  21989335.0264   21989338.3314
 98 12  1  0 54  0.0000000  0  7G27G19G13G31G26G15G 7
  -3705676.55949  -2887533.58945  20074374.1114   20074376.2034
   9792791.70249   7630748.46944  22308604.1144   22308607.7214
   8277569.84349   6450054.20844  22759827.0324   22759829.5594
  15439659.40749  12030900.79044  24512340.5784   24512345.0844
  -3468329.21349  -2702585.68144  23384249.8674   23384254.6314
  -7221648.20549  -5627246.60744  22596881.8524   22596886.1204
 -10579257.71049  -8243560.01444  21974239.0914   21974242.3744
 98 12  1  0 54 30.0000000  0  7G27G19G13G31G26G15G 7
  -3687429.00849  -2873314.69645  20077846.5684   20077848.5474
   9881521.57349   7699888.60544  22325488.9244   22325491.9934
   8363412.19549   6516944.33844  22776162.1754   22776164.3954
  15549524.39849  12116509.94044  24533247.2324   24533250.8354
  -3504619.68949  -2730863.90144  23377344.0854   23377348.6634
  -7260743.44949  -5657710.37444  22589442.1894   22589446.2844
 -10658282.90949  -8305138.00044  21959200.9844   21959204.3574
 98 12  1  0 55  0.0000000  0  7G27G19G13G31G26G15G 7
  -3668692.55449  -2858714.83945  20081411.9844   20081413.7444
   9970583.09849   7769287.17744  22342436.5744   22342439.6594
   8449534.76549   6584052.82144  22792550.4144   22792553.3164
  15659453.06449  12202168.68644  24554165.6094   24554172.1244
  -3540392.73749  -2758738.96044  23370536.7304   23370541.7894
  -7299303.23449  -5687756.90744  22582104.2494   22582108.2764
 -10736979.89049  -8366460.23744  21944225.3154   21944228.5234
 98 12  1  0 55 30.0000000  0  7G27G19G13G31G26G15G 7
  -3649444.10249  -2843716.02045  20085074.7374   20085076.5124
  10059966.46549   7838936.52944  22359445.8914   22359448.2364
   8535919.14249   6651365.30544  22808988.7454   22808990.4414
  15769442.59949  12287874.89944  24575096.1644   24575100.9564
  -3575663.77949  -2786222.83544  23363824.8764   23363829.4254
  -7337325.08749  -5717384.25644  22574868.9054   22574873.4854
 -10815342.42249  -8427521.85944  21929313.3994   21929316.7614
 98 12  1  0 56  0.0000000  0  7G27G19G13G31G26G15G 7
  -3629654.85749  -2828295.80645  20088840.4644   20088842.2284
  10149650.46349   7908820.13744  22376512.0524   22376515.1284
   8622562.25949   6718879.41944  22825476.5474   22825479.4994
  15879505.52049  12373638.29544  24596040.5324   24596045.8354
  -3610439.73949  -2813320.93944  23357206.9194   23357211.1934
  -7374806.95649  -5746590.83644  22567736.3914   22567740.3034
 -10893380.60649  -8488330.74544  21914463.4094   21914466.8474
 98 12  1  0 56 30.0000000  0  7G27G19G13G31G26G15G 7
  -3609308.67649  -2812441.61945  20092712.3094   20092713.9974
  10239621.04449   7978927.06344  22393632.5834   22393636.1754
   8709478.46649   6786606.32044  22842016.3584   22842018.4054
  15989633.47149  12459452.38544  24616996.6984   24617001.8654
  -3644699.58049  -2840016.87944  23350687.5734   23350692.3004
  -7411747.04949  -5775375.25144  22560707.0384   22560711.5464
 -10971086.69149  -8548880.85444  21899676.3014   21899679.6244
 98 12  1  0 57  0.0000000  0  7G27G19G13G31G26G15G 7
  -3588404.44149  -2796152.58245  20096690.3024   20096691.9104
  10329878.36449   8049257.42844  22410807.4494   22410810.6474
   8796658.62649   6854538.90944  22858605.8514   22858609.0154
  16099846.56449  12545332.79944  24637969.5654   24637975.1554
  -3678434.25649  -2866303.58544  23344268.2934   23344272.8074
  -7448143.38949  -5803735.96644  22553780.9914   22553785.3904
 -11048479.46249  -8609186.81944  21884948.8064   21884951.9494
 98 12  1  0 57 30.0000000  0  7G27G19G13G31G26G15G 7
  -3566928.81049  -2779418.30245  20100776.9324   20100778.6874
  10420425.86449   8119813.89744  22428038.1104   22428041.5974
   8884092.83549   6922669.44944  22875243.7664   22875246.9464
  16210142.58749  12631277.86144  24658958.0504   24658962.5244
  -3711643.89149  -2892181.17244  23337948.4724   23337952.2914
  -7483993.48549  -5831671.03844  22546959.0004   22546962.5574
 -11125564.73449  -8669253.17844  21870279.9384   21870283.1014
 98 12  1  0 58  0.0000000  0  7G27G19G13G31G26G15G 7
  -3544900.96649  -2762253.72845  20104968.6284   20104970.4054
  10511267.29249   8190599.40844  22445324.6184   22445327.5024
   8971783.20949   6990999.59144  22891930.5674   22891934.0294
  16320518.41549  12717285.11044  24679961.2404   24679967.8934
  -3744320.16249  -2917643.13044  23331730.4124   23331734.8844
  -7519295.56749  -5859179.09144  22540241.5184   22540245.8624
 -11202330.67749  -8729070.70744  21855672.0194   21855675.1814
 98 12  1  0 58 30.0000000  0  7G27G19G13G31G26G15G 7
  -3522340.28749  -2744673.95945  20109261.8334   20109263.6654
  10602412.60049   8261621.70644  22462669.1864   22462672.5574
   9059718.20449   7059520.36044  22908664.1994   22908667.3754
  16430949.86548  12803335.72144  24700975.4164   24700980.3754
  -3776474.01549  -2942697.99744  23325611.4704   23325616.1824
  -7554047.46549  -5886258.42444  22533628.4934   22533632.5104
 -11278760.88149  -8788626.61844  21841127.8144   21841131.0184
 98 12  1  0 59  0.0000000  0  7G27G19G13G31G26G15G 7
  -3499250.42149  -2726681.83245  20113655.6214   20113657.2854
  10693866.04749   8332884.11444  22480072.5684   22480076.1314
   9147896.25349   7128230.51444  22925444.2274   22925446.3024
  16541430.65048  12889424.76344  24721999.5394   24722004.1704
  -3808115.00849  -2967353.23144  23319590.2174   23319593.9684
  -7588247.45149  -5912907.70344  22527120.1874   22527123.3724
 -11354849.99449  -8847916.74244  21826648.3064   21826651.6554
 98 12  1  0 59 30.0000000  0  7G27G19G13G31G26G15G 7
  -3475623.78249  -2708271.44245  20118151.6084   20118153.4404
  10785600.55149   8404365.51944  22497529.2674   22497532.2784
   9236336.61549   7197145.07444  22942274.0824   22942276.3234
  16651935.63248  12975532.57644  24743028.0824   24743034.1594
  -3839243.55949  -2991609.15744  23313666.8384   23313671.2034
  -7621893.40549  -5939125.28144  22520717.5334   22520721.1274
 -11430586.60949  -8906932.18844  21812235.9094   21812239.4564
 98 12  1  1  0  0.0000000  0  7G27G19G13G31G26G15G 7
  -3451460.48149  -2689442.87245  20122749.5834   20122751.4214
  10877600.56649   8476053.82444  22515036.0164   22515039.5204
   9325054.27049   7266275.70044  22959156.6074   22959158.1444
  16762466.62948  13061660.74444  24764061.8904   24764065.7274
  -3869863.38249  -3015468.66744  23307839.6714   23307844.2644
  -7654983.56849  -5964909.77044  22514420.3484   22514423.7274
 -11505969.20449  -8965671.77844  21797891.2454   21797894.5244
 98 12  1  1  0 30.0000000  0  7G27G19G13G31G26G15G 7
  -3426745.75449  -2670184.61945  20127452.5614   20127454.4964
  10969856.28249   8547941.36644  22532591.8404   22532594.9064
   9414052.65149   7335625.08044  22976092.4074   22976093.6814
  16873023.76148  13147809.31044  24785099.9904   24785108.4294
  -3899969.90749  -3038928.19144  23302110.4654   23302115.0474
  -7687515.83649  -5990259.55344  22508229.4214   22508232.7794
 -11581017.39549  -9024150.79044  21783609.8304   21783613.4404
 98 12  1  1  1  0.0000000  0  7G27G19G13G31G26G15G 7
  -3401465.16349  -2650485.43645  20132263.4634   20132265.4554
  11062364.81849   8620025.91244  22550195.6374   22550199.4174
   9503344.04249   7405202.79244  22993083.9414   22993085.5294
  16983622.64048  13233990.41044  24806146.3694   24806149.1764
  -3929541.63349  -3061970.96544  23296483.4644   23296487.8664
  -7719488.42949  -6015173.21044  22502145.2504   22502148.7124
 -11655743.94849  -9082379.17344  21769389.3944   21769393.0574
 98 12  1  1  1 30.0000000  0  7G27G19G13G31G26G15G 7
  -3375620.51049  -2630346.72545  20137181.3704   20137183.2374
  11155129.56849   8692310.10344  22567847.9464   22567851.9184
   9592917.92749   7475000.62344  23010128.9084   23010130.5134
  17094270.48648  13320209.70944  24827201.4854   24827204.6594
  -3958577.46549  -3084596.17144  23290957.8834   23290961.6954
  -7750899.41049  -6039649.25844  22496167.6764   22496170.9304
 -11730158.19049  -9140364.19644  21755228.8944   21755232.4634
 98 12  1  1  2  0.0000000  0  7G27G19G13G31G26G15G 7
  -3349220.89149  -2609775.57145  20142205.1374   20142207.1594
  11248178.37849   8764815.63744  22585554.6084   22585558.1454
   9682748.28749   7544998.31244  23027223.1234   23027225.4194
  17204981.89748  13406478.51744  24848269.4714   24848271.7894
  -3987078.00349  -3106804.25744  23285534.4154   23285538.6514
  -7781747.09949  -6063686.36044  22490297.6434   22490301.1164
 -11804263.41349  -9198108.42344  21741127.1104   21741130.3834
 98 12  1  1  2 30.0000000  0  7G27G19G13G31G26G15G 7
  -3322271.46149  -2588775.99645  20147333.3114   20147335.2824
  11341530.07149   8837557.20144  22603318.9364   22603322.1394
   9772818.79049   7615183.11544  23044362.7264   23044365.8204
  17315762.16648  13492800.92844  24869350.2694   24869353.4764
  -4015033.65149  -3128587.76044  23280214.8944   23280218.6524
  -7812029.69949  -6087283.16244  22484535.1134   22484538.4554
 -11878058.16249  -9255610.72644  21727084.4984   21727087.6284
 98 12  1  1  3  0.0000000  0  7G27G19G13G31G26G15G 7
  -3294790.54449  -2567362.27345  20152562.7134   20152564.8214
  11435196.27549   8910543.83344  22621143.1884   22621146.0094
   9863111.19949   7685540.83944  23061544.9554   23061547.6124
  17426612.11548  13579177.64444  24890444.2124   24890445.0284
  -4042448.27549  -3149949.68344  23274997.6124   23275001.9434
  -7841745.42449  -6110438.22544  22478880.3954   22478883.6144
 -11951526.59549  -9312858.74944  21713103.8334   21713107.0504
 98 12  1  1  3 30.0000000  0  7G27G19G13G31G26G15G 7
  -3266795.43849  -2545547.88545  20157890.0874   20157892.1064
  11529170.01049   8983770.08544  22639025.8084   22639028.5784
   9953607.54549   7756057.48244  23078765.9394   23078768.9594
  17537515.27248  13665595.89144  24911548.4544   24911550.8784
  -4069332.81649  -3170898.55844  23269881.5004   23269886.7974
  -7870892.46349  -6133150.15244  22473333.8694   22473337.1164
 -12024665.69649  -9369850.14844  21699185.8824   21699189.0604
 98 12  1  1  4  0.0000000  0  7G27G19G13G31G26G15G 7
  -3238283.82049  -2523331.02245  20163315.6124   20163317.5854
  11623443.34749   9057229.80244  22656965.9074   22656969.0504
  10044307.34849   7826732.65144  23096025.6634   23096028.0624
  17648455.59548  13752043.08044  24932659.6864   24932659.0944
  -4095677.20149  -3191426.52344  23264868.4434   23264872.4214
  -7899468.92149  -6155417.47944  22467895.8474   22467899.6234
 -12097475.36349  -9426584.84444  21685330.6084   21685333.7754
 98 12  1  1  4 30.0000000  0  7G27G19G13G31G26G15G 7
  -3209254.23449  -2500710.54945  20168839.8604   20168841.7224
  11718000.33749   9130910.53944  22674959.7094   22674962.5424
  10135214.78049   7897569.61344  23113325.1944   23113327.9694
  17759418.83948  13838508.25644  24953775.6124   24953779.8734
  -4121479.87249  -3211532.38444  23259958.4514   23259961.8554
  -7927473.00549  -6177238.79044  22462567.0324   22462570.1154
 -12169951.87049  -9483059.93744  21671538.7314   21671541.8234
 98 12  1  1  5  0.0000000  0  7G27G19G13G31G26G15G 7
  -3179698.47649  -2477680.07345  20174464.1604   20174465.9284
  11812815.79649   9204792.68444  22693002.9314   22693005.4224
  10226331.28749   7968569.48544  23130663.9164   23130665.8004
  17870392.75248  13924981.76444  24974892.7614   24974895.9894
  -4146750.67549  -3231223.79544  23255149.3804   23255153.3144
  -7954902.97949  -6198612.75244  22457347.4524   22457350.6284
 -12242088.55449  -9539270.23744  21657811.3554   21657814.4244
 98 12  1  1  5 30.0000000  0  7G27G19G13G31G26G15G 7
  -3149596.00549  -2454223.58845  20180192.5444   20180194.1674
  11907874.30649   9278864.21544  22711091.9074   22711094.6934
  10317660.78949   8039735.31144  23148043.2624   23148045.1044
  17981366.46248  14011455.08544  24996010.3834
  -4171487.26249  -3250498.94044  23250441.8594   23250445.0714
  -7981757.41449  -6219538.23144  22452237.3074   22452240.1354
 -12313882.00649  -9595213.08444  21644149.2964   21644152.4844
 98 12  1  1  6  0.0000000  0  7G27G19G13G31G26G15G 7
  -3118942.25149  -2430337.53445  20186025.5324   20186027.3284
  12003176.35649   9353125.51544  22729227.2854   22729230.4074
  10409202.45549   8111066.47844  23165463.1314   23165465.6204
  18092354.81648  14097939.80244  25017129.9594   25017134.3344
  -4195695.91049  -3269362.70944  23245834.8974   23245838.5994
  -8008034.70349  -6240013.98644  22447236.7934   22447239.2134
 -12385316.43649  -9650876.17944  21630555.7054   21630558.8654
 98 12  1  1  6 30.0000000  0  7G27G19G13G31G26G15G 7
  -3087742.97349  -2406026.39445  20191962.5104   20191964.3744
  12098721.90649   9427576.55644  22747408.8594   22747411.7574
  10500945.56249   8182554.59244  23182921.2324   23182924.2634
  18203365.79248  14184442.19544  25038254.3834   25038258.6324
  -4219391.76049  -3287826.88944  23241325.4864   23241327.9214
  -8033733.32149  -6260038.84044  22442346.3714   22442349.0554
 -12456374.92949  -9706246.34444  21617033.8844   21617036.8534
 98 12  1  1  7  0.0000000  0  7G27G19G13G31G26G15G 7
  -3055997.13049  -2381289.36245  20198003.6734   20198005.6474
  12194517.90749   9502222.75844  22765637.9004   22765641.0524
  10592891.35649   8254200.66044  23200418.1504   23200420.7394
  18314401.48547                  25059383.0684
  -4242575.16749  -3305891.79144  23236913.9054   23236918.3374
  -8058851.56649  -6279611.44844  22437566.5344   22437569.7474
 -12527068.29249  -9761331.99444  21603581.5404   21603584.0374
 98 12  1  1  7 30.0000000  0  7G27G19G13G31G26G15G 7
  -3023713.17149  -2356133.02045  20204147.2124   20204148.8174
  12290584.39549   9577079.72244  22783918.6054   22783921.7654
  10685038.51749   8326003.63344  23217953.2984   23217955.2994
  18425462.24147                  25080516.4484
  -4265243.42549  -3323555.25844  23232600.5164   23232602.7744
  -8083387.81749  -6298730.56744  22432897.5274   22432900.6594
 -12597403.78149  -9816138.78344  21590197.0254   21590199.7954
 98 12  1  1  8  0.0000000  0  7G27G19G13G31G26G15G 7
  -2990895.47749  -2330560.77845  20210392.2654   20210393.8544
  12386932.64849   9652156.24144  22802253.4664   22802256.7914
  10777393.75249   8397968.72844  23235527.8704   23235529.9784
  18536552.39847                  25101654.7614
  -4287393.89149  -3340815.27544  23228385.4244   23228388.5804
  -8107340.49649  -6317394.94844  22428339.5844   22428342.8154
 -12667389.26049  -9870672.83844  21576879.0694   21576881.9774
 98 12  1  1  8 30.0000000  0  7G27G19G13G31G26G15G 7
  -2957529.76149  -2304561.50845  20216741.4524   20216743.0874
  12483565.38949   9727454.44744  22820642.1194   22820645.6864
  10869966.72449   8470103.50344  23253143.8594   23253145.9234
  18647657.46946                  25122792.7604
  -4309004.64349  -3357654.71644  23224272.7134   23224274.7004
  -8130708.09349  -6335603.42344  22423892.7374   22423896.1794
 -12737044.36149  -9924949.45744  21563624.0614   21563627.0884
 98 12  1  1  9  0.0000000  0  7G27G19G13G31G26G15G 7
  -2923607.91549  -2278128.89045  20223196.7214   20223198.2684
  12580481.13049   9802973.17644  22839084.4544   22839087.6544
  10962766.45749   8542414.96844  23270802.8974   23270805.2984
  18759321.81245                  25143941.1124
  -4330069.48049  -3374068.77944  23220264.0914   23220265.7564
  -8153489.30949  -6353354.98544  22419557.4024   22419560.5814
 -12806379.53749  -9978976.78944  21550430.0384   21550433.1794
 98 12  1  1  9 30.0000000  0  6G19G27G13G26G15G 7
  12677666.83449   9878702.24944  22857578.2574   22857581.5614
  -2889125.69249  -2251259.61545  20229758.3604   20229759.9014
  11055791.45349   8614901.96044  23288504.6854   23288507.6574
  -4350587.09549  -3390056.43244  23216360.0164   23216362.2734
  -8175682.84049  -6370648.60844  22415333.8524   22415337.9844
 -12875372.25549 -10032737.27644  21537300.8004   21537304.0074
 98 12  1  1 10  0.0000000  0  6G27G19G13G26G15G 7
  -2854074.44849  -2223946.94545  20236428.5454   20236430.0974
  12775107.54449   9954630.02644  22876120.7454   22876124.0364
  11149036.98849   8687560.80744  23306248.6554   23306250.9384
  -4370551.29949  -3405612.86544  23212560.7154   23212561.8844
  -8197287.02049  -6387483.00244  22411222.4914   22411226.2214
 -12944025.29849 -10086233.08244  21524236.4844   21524239.7564
 98 12  1  1 10 30.0000000  0  6G19G27G13G26G15G 7
  12872794.02049  10030749.32344  22894710.3164   22894713.4914
  -2818455.04149  -2196191.54945  20243206.5874   20243208.2054
  11242489.68249   8760381.06844  23324032.4964   23324034.4314
  -4389967.99049  -3420742.66944  23208865.9154   23208868.6874
  -8218300.18049  -6403856.85544  22407223.7664   22407227.4844
 -13012336.97749 -10139462.89244  21511237.1954   21511240.4164
 98 12  1  1 11  0.0000000  0  6G27G19G13G26G15G 7
  -2782274.94949  -2167999.25845  20250091.3044   20250092.9634
  12970716.89849  10107052.82844  22913344.4784   22913347.3484
  11336132.00049   8833349.09044  23341852.1204   23341853.7044
  -4408857.89749  -3435461.98344  23205271.6694   23205273.5674
  -8238720.85649  -6419769.03244  22403337.7024   22403341.4154
 -13080295.48749 -10192417.51044  21498305.0434   21498308.4424
 98 12  1  1 11 30.0000000  0  6G19G27G13G26G15G 7
  13068877.41349  10183541.50644  22932023.9174   22932027.0574
  -2745549.00349  -2139381.62645  20257079.8034   20257081.5974
  11429950.84449   8906454.66744  23359705.1514   23359707.4574
  -4427218.09349  -3449768.53344  23201777.5744   23201780.3084
  -8258548.10549  -6435218.79444  22399564.6164   22399568.6294
 -13147905.84449 -10245100.84144  21485438.9764   21485442.2224
 98 12  1  1 12  0.0000000  0  6G27G19G13G26G15G 7
  -2708293.17749  -2110351.09945  20264169.3684   20264171.1314
  13167277.07649  10260216.52744  22950748.2924   22950751.4524
  11523934.93849   8979688.99744  23377589.7054   23377591.9754
  -4445045.74349  -3463660.12344  23198384.5354   23198387.0674
  -8277780.34749  -6450204.91644  22395904.8014   22395908.8714
 -13215179.12749 -10297521.52344  21472637.4134   21472640.6094
 98 12  1  1 12 30.0000000  0  6G19G27G13G26G15G 7
  13265922.16749  10337082.78144  22969519.5334   22969521.5004
  -2670518.67649  -2080916.40845  20271357.7904   20271359.2824
  11618082.86549   9053051.00244  23395505.2374   23395508.1234
  -4462354.04149  -3477147.01444  23195090.8144   23195095.0064
  -8296416.53749  -6464726.57744  22392358.3724   22392361.9154
 -13282103.72749 -10349670.50344  21459902.2274   21459905.4784
 98 12  1  1 13  0.0000000  0  6G19G27G13G26G15G 7
  13364817.75049  10414144.24444  22988338.7704   22988341.4944
  -2632241.48349  -2051090.00845  20278641.6124   20278643.1654
  11712399.05949   9126544.12544  23413453.3834   23413455.7454
  -4479143.70949  -3490229.78944  23191895.6984   23191899.5974
  -8314455.22449  -6478782.66244  22388925.5464   22388929.1894
 -13348668.86049 -10401539.38644  21447235.2024   21447238.5924
 98 12  1  1 13 30.0000000  0  6G19G13G27G26G15G 7
  13463967.42649  10491403.68544  23007206.0014   23007208.6684
  11806888.59949   9200172.31144  23431434.3904   23431436.2664
  -2593470.11649  -2020878.54245  20286019.5424   20286021.1324
  -4495394.70549  -3502892.81244  23188802.9004   23188806.9574
  -8331895.21949  -6492372.22044  22385606.9434   22385610.4554
 -13414863.33149 -10453119.43944  21434638.4324   21434641.8714
 98 12  1  1 14  0.0000000  0  6G19G27G13G26G15G 7
  13563361.10949  10568853.28344  23026120.0984   23026123.2254
  -2554187.52749  -1990268.72045  20293494.6894   20293496.2504
  11901551.63849   9273935.70144  23449448.0834   23449450.1044
  -4511106.84349  -3515135.94844  23185812.8474   23185816.8584
  -8348735.20249  -6505494.24144  22382402.7734   22382406.8544
 -13480682.55049 -10504407.09144  21422113.5704   21422116.6854
 98 12  1  1 14 30.0000000  0  6G19G13G27G26G15G 7
  13663012.28849  10646503.51544  23045083.1754   23045086.1714
  11996387.01549   9347833.37244  23467494.5124   23467495.8084
  -2514380.82649  -1959250.50045  20301069.9004   20301071.1594
  -4526282.27449  -3526960.87344  23182925.1734   23182928.4144
  -8364974.08349  -6518147.86444  22379312.7904   22379316.0164
 -13546130.43849 -10555405.38844  21409659.3854   21409662.3464
 98 12  1  1 15  0.0000000  0  6G19G27G13G26G15G 7
  13762905.41649  10724342.27844  23064092.4754   23064095.8034
  -2474046.92449  -1927821.47245  20308745.2014   20308746.4504
  12091383.06849   9421856.24044  23485571.8264   23485574.1724
  -4540891.63049  -3538344.71944  23180144.8404   23180148.2134
  -8380610.18549  -6530331.79544  22376337.4204   22376341.0234
 -13611217.67449 -10606122.65644  21397273.6924   21397276.3494
 98 12  1  1 15 30.0000000  0  6G19G27G13G26G15G 7
  13863032.62649  10802363.45544  23083145.8384   23083149.1324
  -2433170.96749  -1895970.06545  20316523.5994   20316524.9454
  12186525.56649   9495993.22544  23503676.8114   23503679.0334
  -4554925.58349  -3549280.19144  23177473.9634   23177478.3524
  -8395642.76849  -6542045.44644  22373476.6854   22373479.8454
 -13675957.05849 -10656568.86844  21384954.1924   21384957.0094
 98 12  1  1 16  0.0000000  0  6G19G27G13G26G15G 7
  13963393.28249  10880566.52944  23102243.9084   23102247.4874
  -2391735.19749  -1863682.44445  20324408.3924   20324410.0114
  12281807.13749   9570238.57844  23521808.4984   23521810.5194
  -4568402.82349  -3559781.85444  23174909.1414   23174912.6964
  -8410070.73049  -6553287.96844  22370731.0764   22370733.7434
 -13740356.36849 -10706750.08744  21372699.4384   21372702.3144
 98 12  1  1 16 30.0000000  0  6G19G13G26G27G15G 7
  14063983.90749  10958948.80744  23121385.5984   23121389.5984
  12377220.86149   9644586.91744  23539965.2824   23539966.9924
  -4581325.91049  -3569851.72444  23172450.0554   23172454.3124
  -2349743.49449  -1830961.62945  20332398.9744   20332400.6244
  -8423892.89749  -6564058.43244  22368100.7484   22368104.3944
 -13804402.29349 -10756655.94145  21360511.9744   21360514.8284
 98 12  1  1 17  0.0000000  0  6G19G27G13G26G15G 7
  14164782.97949  11037493.49944  23140567.1524   23140570.3094
  -2307192.45049  -1797804.96445  20340496.1834   20340497.5894
  12472767.13149   9719038.52844  23558147.1524   23558149.4374
  -4593693.93149  -3579489.07244  23170096.8244   23170101.4264
  -8437108.46049  -6574356.23144  22365586.0594   22365589.4824
 -13868082.55249 -10806276.86445  21348394.0284   21348396.7944
 98 12  1  1 17 30.0000000  0  6G19G13G26G27G15G 7
  14265804.21049  11116211.30344  23159791.1024   23159793.9754
  12568455.67049   9793600.98044  23576356.0584   23576358.7434
  -4605537.76849  -3588717.96444  23167843.3364   23167847.8784
  -2264073.01149  -1764205.38945  20348701.7734   20348703.3084
  -8449716.16149  -6584180.36044  22363186.9614   22363189.3314
 -13931385.14049 -10855603.49945  21336347.8474   21336350.6544
 98 12  1  1 18  0.0000000  0  6G19G27G13G26G15G 7
  14367040.44149  11195096.64944  23179055.8424   23179059.1454
  -2220384.52649  -1730162.40345  20357015.4524   20357016.7694
  12664294.69949   9868280.70744  23594593.5654   23594593.9294
  -4616859.87149  -3597540.30844  23165688.9574   23165692.0634
  -8461714.89749  -6593529.97844  22360903.4714   22360906.6574
 -13994310.27549 -10904636.01245  21324373.3314   21324376.2624
 98 12  1  1 18 30.0000000  0  6G19G13G26G27G15G 7
  14468492.94249  11274150.48944  23198361.5844   23198364.6294
  12760292.48349   9943084.13044  23612861.1044   23612862.9174
  -4627650.11749  -3605948.21944  23163635.4084   23163638.5654
  -2176149.71749  -1695693.71145  20365432.9814   20365434.5824
  -8473103.80449  -6602404.40444  22358735.9654   22358739.1204
 -14056870.74649 -10953384.37745  21312468.4364   21312471.5314
 98 12  1  1 19  0.0000000  0  6G19G27G13G26G15G 7
  14570162.57849  11353373.54544  23217708.4694   23217711.3594
  -2131382.75149  -1660810.35045  20373951.6744   20373953.6234
  12856462.80149  10018022.02044  23631161.5654   23631163.4034
  -4637908.57849  -3613941.76144  23161683.2934   23161686.4734
  -8483881.88549  -6610802.87144  22356684.6784   22356688.6884
 -14119082.34649 -11001860.89145  21300629.8094   21300632.9464
 98 12  1  1 19 30.0000000  0  6G 7G19G13G27G26G15
 -14180946.61549 -11050066.75945  21288857.2564   21288860.4704
  14672053.84049  11432769.29444  23237097.8214   23237101.2524
  12952799.26949  10093089.37244  23649493.3614   23649495.2624
  -2086103.84749  -1625528.07945  20382568.0944   20382569.9154
  -4647640.49349  -3621525.00444  23159831.4834   23159834.2644
  -8494048.10649  -6618724.56244  22354750.0084   22354753.6784
 98 12  1  1 20  0.0000000  0  6G 7G19G27G13G26G15
 -14242463.14849 -11098001.66445  21277150.8624   21277153.9924
  14774163.32149  11512335.09544  23256528.1944   23256532.0804
  -2040332.79749  -1589862.31445  20391278.0184   20391279.5994
  13049284.36749  10168272.54944  23667853.7504   23667855.0894
  -4656835.08849  -3628689.55844  23158081.2834   23158084.4994
  -8503601.90249  -6626169.05644  22352932.1984   22352935.8204
 98 12  1  1 20 30.0000000  0  6G 7G19G13G27G26G15
 -14303620.05249 -11145656.33745  21265513.1284   21265516.3444
  14876492.26849  11592071.89644  23276000.6694   23276004.0634
  13145904.18849  10243560.69844  23686239.9154   23686243.0274
  -1994072.23049  -1553815.10545  20400081.1664   20400082.7314
  -4665504.18749  -3635444.64144  23156431.4074   23156435.1824
  -8512542.08349  -6633135.40444  22351230.8174   22351234.6894
 98 12  1  1 21  0.0000000  0  6G 7G19G27G13G26G15
 -14364398.46949 -11193016.08545  21253947.3824   21253950.4484
  14979031.87749  11671972.85644  23295513.2744   23295517.1084
  -1947300.01549  -1517369.21345  20408981.3924   20408983.2424
  13242641.36849  10318940.28644  23704648.6454   23704650.7154
  -4673646.03249  -3641788.86844  23154882.0214   23154885.6014
  -8520868.01649  -6639623.11844  22349646.3564   22349650.0104
 98 12  1  1 21 30.0000000  0  6G19G13G26G15G27G 7
  15081783.88049  11752039.31344  23315066.2704   23315070.8244
  13339470.33349  10394391.38844  23723074.7024   23723077.7844
  -4681258.31749  -3647720.44144  23153433.3844   23153437.3624
  -8528578.74249  -6645631.46544  22348178.7264   22348182.5314
  -1900001.91949  -1480513.54645  20417981.9404   20417983.8964
 -14424790.31849 -11240074.61245  21242455.3084   21242458.3744
 98 12  1  1 22  0.0000000  0  6G 7G19G13G27G26G15
 -14484800.38149 -11286835.64445  21231035.9594   21231038.6274
  15184741.53549  11832266.02044  23334658.4784   23334662.4514
  13436401.69449  10469922.30744  23741520.4104   23741522.4124
  -1852155.11549  -1443230.31145  20427086.9164   20427088.7184
  -4688336.75249  -3653236.15644  23152085.8984   23152089.0784
  -8535673.46149  -6651159.73844  22346828.7264   22346831.8844
 98 12  1  1 22 30.0000000  0  6G 7G19G13G26G27G15
 -14544437.58149 -11333306.13245  21219687.2464   21219690.0484
  15287894.28049  11912644.74244  23354287.7044   23354292.2874
  13533446.28749  10545541.44444  23759987.6054   23759989.4634
  -4694868.72349  -3658325.89044  23150842.9594   23150847.0014
  -1803748.41349  -1405510.79145  20436298.3324   20436300.3004
  -8542151.55949  -6656207.61644  22345596.0694   22345599.8814
 98 12  1  1 23  0.0000000  0  6G 7G19G13G27G26G15
 -14603706.58849 -11379489.71545  21208408.7214   21208411.5214
  15391254.09249  11993184.82644  23373956.4014   23373959.9844
  13630604.45649  10621249.06944  23778476.5164   23778477.5234
  -1754794.90149  -1367365.19045  20445613.6574   20445615.6684
  -4700836.15249  -3662975.78344  23149707.5404   23149711.0024
  -8548012.13849  -6660774.27844  22344480.9294   22344484.1564
 98 12  1  1 23 30.0000000  0  6G 7G19G13G26G27G15
 -14662613.65849 -11425391.27045  21197199.0204   21197201.8974
  15494818.13549  12073884.03844  23393663.9644   23393668.8604
  13727884.86349  10697051.95044  23796988.4184   23796990.8484
  -4706251.79149  -3667195.70544  23148676.3834   23148680.5924
  -1705313.33049  -1328808.11345  20455029.8404   20455031.7444
  -8553254.48349  -6664859.20444  22343483.1664   22343486.3734
 98 12  1  1 24  0.0000000  0  6G 7G19G13G27G26G15
 -14721163.44349 -11471014.42145  21186057.3304   21186060.1064
  15598587.63049  12154743.36444  23413411.0904   23413415.1334
  13825281.05049  10772945.06044  23815522.3334   23815524.0304
  -1655302.72249  -1289838.80045  20464546.7954   20464548.5004
  -4711118.63449  -3670988.00944  23147750.3874   23147753.7154
  -8557877.58349  -6668461.59144  22342603.6014   22342606.8764
 98 12  1  1 24 30.0000000  0  6G 7G19G13G26G27G15
 -14779354.41149 -11516357.97645  21174983.9614   21174986.4764
  15702573.89849  12235771.58344  23433199.4694   23433203.7494
  13922775.45449  10848914.68744  23834074.7044   23834075.6054
  -4715431.88649  -3674348.94044  23146930.0794   23146933.7634
  -1604777.65149  -1250468.60645  20474161.4384   20474162.9494
  -8561881.01649  -6671581.12144  22341841.7434   22341845.1734
 98 12  1  1 25  0.0000000  0  6G 7G19G13G27G26G15
 -14837169.72249 -11561408.80745  21163982.1724   21163984.8074
  15806781.24549  12316972.07744  23453029.7784   23453031.5334
  14020362.59049  10924956.59844  23852644.7304   23852645.1534
  -1553733.24949  -1210693.73745  20483874.6094   20483876.1324
  -4719212.74949  -3677295.02344  23146210.6314   23146213.5704
  -8565264.23449  -6674217.37344  22341198.2404   22341201.4734
 98 12  1  1 25 30.0000000  0  6G 7G19G13G26G15G27
 -14894606.03249 -11606164.31345  21153052.4714   21153054.6974
  15911191.08049  12398330.35544  23472898.4494   23472903.1484
  14118046.68549  11001074.05844  23871233.0654   23871234.4944
  -4722466.79049  -3679830.60144  23145591.7844   23145594.5424
  -8568026.78049  -6676369.98344  22340672.6224   22340675.7144
  -1502155.70149  -1170503.43345  20493689.4694   20493691.1514
 98 12  1  1 26  0.0000000  0  6G 7G19G13G27G26G15
 -14951658.00949 -11650620.33845  21142195.7204   21142198.2704
  16015812.63849  12479853.62144  23492807.2074   23492810.8614
  14215822.58949  11077263.04844  23889839.0594   23889841.7724
  -1450034.76649  -1129889.71245  20503607.8114   20503609.5424
  -4725177.94249  -3681943.15144  23145075.9364   23145078.7684
  -8570168.10749  -6678038.52844  22340265.1174   22340268.3034
 98 12  1  1 26 30.0000000  0  6G 7G19G13G26G27G15
 -15008319.09349 -11694771.77345  21131413.2464   21131415.7654
  16120642.33749  12561539.06644  23512755.4234   23512758.7644
  14313716.48749  11153543.98444  23908467.6674   23908470.3934
  -4727346.72049  -3683633.06344  23144663.3674   23144665.5404
  -1397384.67949  -1088863.66345  20513626.5504   20513628.3874
  -8571687.60249  -6679222.51644  22339975.9174   22339978.9434
 98 12  1  1 27  0.0000000  0  6G 7G19G13G27G26G15
 -15064591.09149 -11738620.02545  21120704.7544   21120707.5304
  16225662.61949  12643373.01244  23532740.0094   23532744.3184
  14411724.04549  11229913.50344  23927117.7964   23927121.2644
  -1344195.00849  -1047417.16145  20523748.2114   20523749.9434
  -4728984.39149  -3684909.13744  23144351.6554   23144353.6334
  -8572584.78049  -6679921.59944  22339805.0754   22339808.0584
 98 12  1  1 27 30.0000000  0  6G 7G19G13G26G15G27
 -15120489.04349 -11782176.81545  21110067.4774   21110070.3144
  16330872.61349  12725354.76944  23552760.6304   23552762.9204
  14509829.14649  11306359.00044  23945786.8314   23945791.2874
  -4730087.96549  -3685769.03844  23144141.6084   23144144.2714
  -8572859.01849  -6680135.27744  22339752.7984   22339755.8774
  -1290472.25249  -1005555.27145  20533971.3504   20533973.0284
 98 12  1  1 28  0.0000000  0  6G 7G19G13G26G27G15
 -15176015.07549 -11825443.79545  21099501.3314   21099504.3704
  16436270.29449  12807482.82244  23572816.9054   23572820.3954
  14608019.16149  11382870.68844  23964472.2684   23964473.6104
  -4730674.06549  -3686225.70644  23144030.0164   23144033.2164
  -1236226.17649   -963285.59645  20544294.1164   20544295.4674
  -8572509.82749  -6679863.16244  22339818.9904   22339822.1364
 98 12  1  1 28 30.0000000  0  6G 7G19G13G26G15G27
 -15231177.66449 -11868427.57945  21089004.3524   21089007.0014
  16541836.15449  12889741.90044  23592905.9104   23592908.9934
  14706279.81149  11459437.40344  23983170.8254   23983173.9114
  -4730754.09649  -3686288.04644  23144014.4184   23144016.9914
  -8571536.96349  -6679105.07144  22340004.2354   22340007.3324
  -1181468.48549   -920617.26145  20554714.2924   20554715.7274
 98 12  1  1 29  0.0000000  0  6G 7G19G13G26G27G15
 -15285977.93349 -11911129.03645  21078576.3404   21078578.6334
  16647561.15249  12972124.98944  23613024.7304   23613027.9084
  14804581.21249  11536035.88444  24001877.0214   24001880.6784
  -4730320.60849  -3685950.23044  23144097.0384   23144099.4564
  -1126196.55749   -877548.22345  20565232.0494   20565233.7304
  -8569939.92749  -6677860.60644  22340308.5574   22340311.1214
 98 12  1  1 29 30.0000000  0  6G 7G19G13G26G15G27
 -15340413.46249 -11953546.27845  21068217.7774   21068219.9114
  16753445.79449  13054632.45044  23633174.0964   23633177.0094
  14902928.14849  11612669.83944  24020591.7264   24020594.2954
  -4729367.43149  -3685207.47744  23144278.3454   23144281.1194
  -8567718.12349  -6676129.32544  22340731.3484   22340734.4694
  -1070430.39449   -834094.07145  20575844.0804   20575845.6344
 98 12  1  1 30  0.0000000  0  6G 7G19G13G26G27G15
 -15394477.38449 -11995673.95645  21057929.7924   21057931.7814
  16859484.30749  13137259.83344  23653352.8004   23653355.5294
  15001332.37949  11689348.43544  24039317.2604   24039319.0934
  -4727875.76249  -3684045.09844  23144562.0934   23144565.1764
  -1014175.60749   -790259.16945  20586548.9404   20586550.5554
  -8564871.50249  -6673911.15644  22341272.9874   22341275.6494
 98 12  1  1 30 30.0000000  0  6G 7G19G13G26G15G27
 -15448165.95049 -12037509.15345  21047712.9714   21047714.7704
  16965685.93049  13220014.28744  23673562.3884   23673565.6044
  15099801.08949  11766077.28144  24058054.9884   24058058.0274
  -4725822.62949  -3682445.23644  23144952.6304   23144955.8144
  -8561399.52149  -6671205.70744  22341933.3024   22341936.5434
   -957440.62449   -746050.08845  20597345.1444   20597346.9564
 98 12  1  1 31  0.0000000  0  6G 7G19G13G26G27G15
 -15501473.27449 -12079047.27745  21037568.7644   21037571.0164
  17072063.92849  13302906.18444  23693805.7724   23693810.3474
  15198343.61449  11842863.65344  24076807.4874   24076810.7054
  -4723198.42649  -3680400.36444  23145452.1544   23145455.5844
   -900220.14049   -701462.69445  20608233.8024   20608235.6184
  -8557302.18049  -6668012.96244  22342713.1534   22342716.1104
 98 12  1  1 31 30.0000000  0  6G 7G19G13G26G15G27
 -15554394.84649 -12120284.81445  21027498.0414   21027500.5234
  17178626.21849  13385941.71144  23714084.1974   23714087.1354
  15296967.67149  11919713.52444  24095575.2644   24095575.2984
  -4720008.88649  -3677914.97844  23146059.0524   23146062.2494
  -8552579.21249  -6664332.71444  22343612.1604   22343613.6374
   -842507.96149   -656492.16545  20619216.2654   20619218.0464
 98 12  1  1 32  0.0000000  0  6G 7G19G13G27G26G15
 -15606925.36949 -12161217.64345  21017501.6074   21017504.6434
  17285380.84549  13469127.09544  23734399.0214   23734403.6364
  15395672.35749  11996626.29044  24114358.2844   24114357.3934
   -784292.87049   -611129.75845  20630294.5094   20630296.0774
  -4716253.33249  -3674988.54144  23146773.6334   23146777.2334
  -8547230.18849  -6660164.62344  22344630.3484   22344632.5624
 98 12  1  1 32 30.0000000  0  6G 7G19G13G26G15G27
 -15659071.80249 -12201851.18445  21007578.2564   21007581.2864
  17392335.35949  13552468.22144  23754751.9204   23754755.1074
  15494443.98149  12073591.17544  24133153.8474   24133154.8414
  -4711952.52049  -3671637.23144  23147591.9944   23147595.0694
  -8541254.90849  -6655508.54444  22345767.3454   22345769.6924
   -725561.42249   -565364.99245  20641470.8724   20641472.3764
 98 12  1  1 33  0.0000000  0  6G 7G19G13G26G27G15
 -15710834.17949 -12242185.45945  20997728.1754   20997731.2384
  17499486.73549  13635962.78844  23775141.7834   23775144.1344
  15593274.79149  12150602.16744  24151960.6034   24151962.0504
  -4707129.40049  -3667878.92144  23148509.6464   23148513.3824
   -666286.09949   -519176.42645  20652750.4434   20652751.8984
  -8534653.55849  -6650364.61044  22347023.2404   22347026.3694
 98 12  1  1 33 30.0000000  0  6G19G13G26G15G27G 7
  17606832.14449  13719608.49144  23795568.9204   23795572.4164
  15692160.12949  12227655.68244  24170777.5364   24170779.8194
  -4701801.75149  -3663727.46744  23149523.0004   23149526.4014
  -8527425.77249  -6644732.54844  22348398.3414   22348401.4194
   -606463.93749   -472561.75245  20664133.9854   20664135.6554
 -15762208.70149 -12282217.51045  20987951.8524   20987954.7924
 98 12  1  1 34  0.0000000  0  6G19G13G26G27G15G 7
  17714368.86049  13803403.28944  23816032.1164   23816035.3304
  15791100.53449  12304752.07644  24189605.3444   24189609.2074
  -4695975.49649  -3659187.49244  23150632.1444   23150635.3274
   -546101.97149   -425526.45145  20675620.3974   20675622.2644
  -8519571.23749  -6638612.12244  22349893.1184   22349896.1414
 -15813201.55549 -12321952.15845  20978248.3714   20978250.9624
 98 12  1  1 34 30.0000000  0  6G19G13G26G15G27G 7
  17822084.66249  13887337.63844  23836529.6584   23836536.1434
  15890082.87348  12381881.15344  24208441.0134   24208444.2304
  -4689658.54649  -3654265.17544  23151834.1424   23151838.0194
  -8511089.91549  -6632003.27744  22351506.9504   22351510.0404
   -485199.41049   -378069.90745  20687209.9554   20687211.5394
 -15863808.80449 -12361386.33345  20968618.5364   20968620.8944
 98 12  1  1 35  0.0000000  0  6G19G13G26G27G15G 7
  17929964.16848  13971399.56244  23857058.1124   23857063.5234
  15989116.68348  12459050.33144  24227286.4934   24227288.8944
  -4682841.85349  -3648953.43044  23153130.9794   23153134.2004
   -423771.89349   -330204.30745  20698899.1204   20698900.7674
  -8501981.84849  -6624906.06544  22353240.1954   22353243.1954
 -15914024.03949 -12400515.04645  20959062.8814   20959064.9664
 98 12  1  1 35 30.0000000  0  6G19G13G26G15G27G 7
  18037990.01948  14055575.51044  23877614.6054   23877620.8894
  16088197.79248  12536256.37244  24246141.3464   24246143.4364
  -4675502.88249  -3643234.72844  23154527.6664   23154530.8364
  -8492247.04449  -6617320.48944  22355092.3504   22355095.5614
   -361845.00949   -281949.59445  20710683.4334   20710685.2144
 -15963850.67749 -12439340.96245  20949581.2554   20949583.2244
 98 12  1  1 36  0.0000000  0  6G19G13G26G15G27G 7
  18146150.97448  14139856.72144  23898196.6314   23898201.8174
  16187318.60648  12613493.34344  24265003.5214   24265006.6814
  -4667626.82949  -3637097.51644  23156026.6424   23156029.2544
  -8481885.39649  -6609246.46644  22357063.8564   22357067.0534
   -299428.97949   -233313.72845  20722560.8734   20722562.3334
 -16013295.76949 -12477869.56545  20940171.7904   20940174.1614
 98 12  1  1 36 30.0000000  0  6G19G13G26G15G27G 7
  18254437.23148  14224235.58144  23918802.9824   23918807.5394
  16286460.88148  12690747.07244  24283869.5994   24283874.3484
  -4659200.14849  -3630531.24544  23157630.3984   23157633.5594
  -8470896.95849  -6600684.04044  22359154.8984   22359158.5244
   -236522.44349   -184295.64945  20734531.7424   20734533.0994
 -16062362.24249 -12516103.14345  20930834.6294   20930836.8644
 98 12  1  1 37  0.0000000  0  6G19G13G26G15G27G 7
  18362852.30348  14308714.82644  23939433.8914   23939438.0744
  16385619.53248  12768013.50544  24302738.7114   24302740.1674
  -4650223.23049  -3623536.22244  23159339.0374   23159341.9454
  -8459281.78349  -6591633.25044  22361365.4234   22361368.5744
   -173134.41449   -134902.38245  20746594.2814   20746595.6714
 -16111058.69549 -12554048.39345  20921568.0844   20921570.2084
 98 12  1  1 37 30.0000000  0  6G19G13G26G15G27G 7
  18471403.13548  14393299.84644  23960090.8894   23960091.9964
  16484777.46248  12845279.41244  24321607.3114   24321609.8334
  -4640700.44649  -3616115.83544  23161151.5604   23161154.3524
  -8447040.15549  -6582094.31644  22363695.2884   22363698.3594
   -109260.88749    -85130.80545  20758748.9384   20758750.3724
 -16159384.43649 -12591704.77845  20912371.9134   20912374.1284
 98 12  1  1 38  0.0000000  0  6G19G13G26G15G27G 7
  18580110.57248  14478006.92144  23980777.1334   23980782.1404
  16583931.68848  12922542.43744  24340476.3984   24340477.0084
  -4630651.69549  -3608285.60044  23163063.5934   23163065.7924
  -8434172.05949  -6572067.23044  22366143.9684   22366147.0014
    -44896.15849    -34976.47945  20770997.0514   20770998.7154
 -16207335.15049 -12629068.93145  20903247.1354   20903249.5564
 98 12  1  1 38 30.0000000  0  6G19G13G26G15G27G 7
  18688975.06248  14562836.33444  24001493.7344   24001497.0154
  16683079.14748  12999800.16344  24359343.7134   24359345.9774
  -4620092.26549  -3600057.44744  23165072.6384   23165075.0944
  -8420677.74549  -6561552.17444  22368711.4904   22368714.0334
     19960.32949     15561.03845  20783338.8734   20783340.4654
 -16254908.58849 -12666139.10345  20894194.0074   20894196.4084
 98 12  1  1 39  0.0000000  0  6G19G13G26G15G27G 7
  18798004.20947  14647794.04844  24022240.9434   24022244.1214
  16782235.82148  13077065.11444  24378212.3604   24378213.2624
  -4609036.06449  -3591442.19644  23167176.6774   23167178.5934
  -8406557.18149  -6550549.14044  22371398.8144   22371401.6544
     85307.97849     66481.28145  20795773.9314   20795775.7084
 -16302096.24049 -12702908.66445  20885214.3164   20885216.7954
 98 12  1  1 39 30.0000000  0  6G19G13G26G15G27G 7
  18907196.98747  14732879.29244  24043019.4354   24043023.6184
  16881413.70948  13154346.60344  24397085.6004   24397087.7484
  -4597475.91649  -3582434.25644  23169376.0374   23169379.2294
  -8391810.47949  -6539058.19444  22374205.2144   22374207.5594
    151146.75849    117784.22745  20808302.7164   20808304.6194
 -16348905.38449 -12739383.28445  20876306.8644   20876309.6114
 98 12  1  1 40  0.0000000  0  6G19G13G26G15G27G 7
  19016537.63047  14818079.72344  24063825.9104   24063829.0464
  16980616.94148  13231647.79744  24415963.6874   24415965.4114
  -4585409.47449  -3573031.81144  23171671.8274   23171675.1974
  -8376437.84849  -6527079.51344  22377130.8184   22377133.7364
    217473.64849    169467.51945  20820924.0584   20820926.0554
 -16395338.45549 -12775564.85945  20867471.0874   20867473.5594
 98 12  1  1 40 30.0000000  0  6G19G13G26G15G27G 7
  19126000.42847  14903375.37344  24084655.6834   24084658.5914
  17079842.76048  13308966.60844  24434846.3234   24434847.8694
  -4572822.43549  -3563223.69944  23174067.3064   23174070.2944
  -8360439.85549  -6514613.52944  22380175.1934   22380177.8064
    284287.47549    221530.24145  20833638.3494   20833640.5814
 -16441400.75249 -12811457.52145  20858705.8604   20858708.2774
 98 12  1  1 41  0.0000000  0  6G19G13G26G15G27G 7
  19235581.01947  14988762.79144  24105508.7194   24105515.3584
  17179099.34348  13386309.37744  24453733.9884   24453733.4054
  -4559695.53149  -3552994.91844  23176565.0584   23176567.3084
  -8343816.87349  -6501660.54444  22383337.9304   22383341.0234
    351583.87049    273968.99045  20846444.3894   20846446.5444
 -16487089.11449 -12847058.80345  20850011.4564   20850013.7784
 98 12  1  1 41 30.0000000  0  6G19G13G26G15G27G 7
  19345265.85247  15074231.47844  24126381.6474   24126385.5894
  17278379.29848  13463670.36444  24472626.3734   24472627.1464
  -4546018.83249  -3542337.72744  23179167.4794   23179171.0614
  -8326569.03849  -6488220.65744  22386620.1904   22386622.6134
    419359.17049    326780.90945  20859341.7984   20859343.9304
 -16532399.65149 -12882365.67745  20841389.1514   20841391.3894
 98 12  1  1 42  0.0000000  0  6G19G13G26G15G27G 7
  19455050.48547  15159777.86144  24147273.3914   24147276.4804
  17377672.81148  13541041.91844  24491521.0664   24491522.8884
  -4531794.46949  -3531253.79044  23181874.3834   23181877.7984
  -8308696.43849  -6474293.93544  22390021.0354   22390024.0874
    487612.53149    379965.34445  20872329.9744   20872331.6324
 -16577316.40749 -12917365.70945  20832841.8604   20832844.0334
 98 12  1  1 42 30.0000000  0  6G19G13G26G15G27G 7
  19564954.02947  15245416.95544  24168187.8984   24168192.7934
  17476978.57347  13618423.03444  24510418.0674   24510421.2744
  -4517036.61249  -3519754.14244  23184682.7174   23184686.1304
  -8290199.51449  -6459880.73444  22393541.0564   22393544.0914
    556340.38349    433519.51345  20885408.5604   20885410.2084
 -16621831.86049 -12952053.03745  20824370.8554   20824372.9264
 98 12  1  1 43  0.0000000  0  6G19G13G26G15G27G 7
  19674996.79747  15331164.49944  24189127.9284   24189131.6954
  17576290.76047  13695809.16344  24529316.3324   24529320.7454
  -4501766.24949  -3507855.14644  23187588.5214   23187591.8214
  -8271078.87549  -6444981.51944  22397179.6624   22397182.6954
    625553.46449    487451.77945  20898579.2784   20898580.9024
 -16665937.13949 -12986420.75045  20815977.9524   20815979.5964
 98 12  1  1 43 30.0000000  0  6G19G13G26G15G27G 7
  19785184.84446  15417025.26844  24210096.0104   24210102.5614
  17675593.17647  13773187.63144  24548212.9264   24548211.8554
  -4486003.70749  -3495572.63644  23190588.0214   23190591.2854
  -8251334.74149  -6429596.47344  22400936.7114   22400939.8784
    695255.48149    541765.03145  20911843.1354   20911844.7934
 -16709636.34849 -13020472.04345  20807662.1684   20807663.8304
 98 12  1  1 44  0.0000000  0  6G19G13G26G15G27G 7
  19895527.74346  15503006.64544  24231093.4074
  17774881.62047  13850555.25344  24567106.5624   24567106.0514
  -4469767.91649  -3482921.36344  23193677.6954   23193680.7424
  -8230967.86649  -6413726.16944  22404812.1184   22404815.7374
    765444.34249    596457.64345  20925199.5704   20925201.3914
 -16752929.47549 -13054206.91245  20799423.7594   20799425.6964
 98 12  1  1 44 30.0000000  0  6G19G13G26G15G27G 7
  20006024.28146  15589107.80144  24252120.1074   24252122.4924
  17874146.78347  13927904.75544  24585995.9924   24585996.7644
  -4453068.79549  -3469909.04544  23196854.9454   23196858.1004
  -8209978.47749  -6397370.79044  22408806.1964   22408809.5744
    836128.64449    651536.30744  20938650.3574   20938652.0314
 -16795823.25949 -13087630.59945  20791261.1874   20791263.3244
 98 12  1  1 45  0.0000000  0  6G19G13G26G27G15G 7
  20116655.12746  15675313.54944  24273173.3864   24273180.6334
  17973378.91547  14005228.50144  24604878.7454   24604881.9774
  -4435883.72549  -3456518.06644  23200125.3324   23200129.1224
    907309.14949    707001.62244  20952195.5994   20952197.1544
  -8188367.06149  -6380530.71644  22412918.9504   22412922.3954
 -16838326.28449 -13120749.80445  20783173.0514   20783175.3334
 98 12  1  1 45 30.0000000  0  6G19G13G26G15G27G 7
  20227407.03746  15761613.70044  24294248.9734
  18072580.06547  14082528.09044  24623755.3274   24623757.7744
  -4418194.75849  -3442734.44044  23203491.4084   23203494.9994
  -8166134.25549  -6363206.44744  22417149.6374   22417153.4074
    978964.37149    762836.84544  20965831.1124   20965832.6664
 -16880443.90649 -13153568.69345  20775158.3104   20775160.5564
 98 12  1  1 46  0.0000000  0  6G27G19G13G26G15G 7
   1051103.72849    819049.31944  20979558.5454   20979560.2614
  20338262.26446  15847994.29944  24315343.9784   24315348.5964
  18171750.43947  14159803.67944  24642626.8234   24642629.9474
  -4399999.50549  -3428556.30944  23206953.8954   23206957.0814
  -8143280.58749  -6345398.38344  22421498.2714   22421501.1774
 -16922174.16149 -13186085.73845  20767217.3004   20767219.5804
 98 12  1  1 46 30.0000000  0  6G27G19G13G26G15G 7
   1123730.95949    875641.95044  20993378.8564   20993380.9044
  20449215.61447  15934451.40244  24336457.4244   24336461.8104
  18270874.11247  14237042.97444  24661489.7474   24661491.0044
  -4381282.07449  -3413971.28644  23210515.8894   23210519.4214
  -8119806.65149  -6327106.98844  22425964.9354   22425968.1894
 -16963529.36149 -13218310.53445  20759347.5774   20759349.7444
 98 12  1  1 47  0.0000000  0  6G27G19G13G26G15G 7
   1196828.03249    932600.69444  21007288.8524   21007290.8264
  20560272.48347  16020989.13144  24357590.3914   24357593.4164
  18369959.77747  14314252.59644  24680345.9194   24680346.3164
  -4362030.23049  -3398969.83744  23214179.5584   23214182.7704
  -8095712.96049  -6308332.66944  22430549.6744   22430553.2614
 -17004506.75049 -13250240.92945  20751549.9104   20751552.2414
 98 12  1  1 47 30.0000000  0  6G27G26G19G13G15G 7
   1270394.22849    989924.99344  21021288.2204   21021289.7174
  -4342268.60749  -3383571.16544  23217940.1174   23217942.9824
  20671436.48346  16107610.37644  24378743.8574   24378748.4524
  18469018.19747  14391440.98044  24699196.1884   24699196.6904
  -8071000.36149  -6289076.08644  22435252.4494   22435256.2934
 -17045102.46149 -13281873.91745  20743824.6144   20743826.8804
 98 12  1  1 48  0.0000000  0  6G27G26G19G13G15G 7
   1344440.16549   1047623.12344  21035378.6234   21035380.2974
  -4322004.23649  -3367780.73444  23221796.5054   23221799.6024
  20782714.22546  16194320.23544  24399918.2594   24399921.7514
  18568042.05047  14468602.41744  24718039.6564   24718041.2404
  -8045669.52049  -6269337.75744  22440073.2054   22440076.4214
 -17085322.07349 -13313213.84345  20736171.0874   20736173.1684
 98 12  1  1 48 30.0000000  0  5G27G26G15G13G 7
   1418938.18449   1105673.51844  21049555.0624   21049556.6364
  -4301227.92549  -3351591.39144  23225750.0844   23225753.1204
  -8019720.99849  -6249118.11044  22445011.3434   22445014.0154
  18667040.68447  14545744.26644  24736878.7154   24736881.0784
 -17125173.79249 -13344267.09645  20728587.5824   20728589.7314
 98 12  1  1 49  0.0000000  0  5G27G26G15G13G 7
   1493880.18249   1164069.86944  21063816.1494   21063817.9954
  -4279952.76149  -3335013.34144  23229798.7274   23229802.4744
  -7993155.62049  -6228417.80444  22450066.4194   22450068.5224
  18766032.02947  14622880.38544  24755716.7444   24755715.7514
 -17164654.48749 -13375031.24045  20721074.5764   20721076.8254
 98 12  1  1 49 30.0000000  0  5G27G26G15G13G 7
   1569273.15349   1222817.63244  21078163.1544   21078165.0354
  -4258194.98749  -3318059.23244  23233938.7204   23233941.9194
  -7965974.02349  -6207237.31444  22455238.4994   22455242.2844
  18865009.70147  14700005.86644  24774551.9964   24774550.8224
 -17203771.55149 -13405512.03845  20713630.8374   20713633.0054
 98 12  1  1 50  0.0000000  0  5G27G26G15G13G 7
   1645105.87949   1281908.05944  21092593.6124   21092595.5774
  -4235941.57849  -3300718.91344  23238173.4384   23238176.8594
  -7938176.85549  -6185577.17644  22460528.4924   22460531.7114
  18963954.20547  14777105.50444  24793380.0184   24793381.9384
 -17242526.08849 -13435710.34945  20706256.2894   20706258.3534
 98 12  1  1 50 30.0000000  0  5G27G26G15G13G 7
   1721369.70849   1341334.41444  21107105.9124   21107108.1104
  -4213202.88649  -3283000.45244  23242500.7564   23242503.8794
  -7909765.06549  -6163438.10944  22465935.2024   22465938.2254
  19062864.60347  14854178.55944  24812202.1054   24812204.1634
 -17280912.09249 -13465621.49345  20698951.5224   20698953.6744
 98 12  1  1 51  0.0000000  0  5G27G26G15G13G 7
   1798086.58049   1401113.78644  21121704.5114   21121706.9334
  -4189994.11149  -3264915.69944  23246917.1484   23246920.1364
  -7880739.52549  -6140820.78944  22471458.7404   22471461.9024
  19161713.65847  14931203.82144  24831012.7644   24831014.0284
 -17318905.97849 -13495227.09145  20691721.6254   20691723.6044
 98 12  1  1 51 30.0000000  0  5G27G26G15G13G 7
   1875259.67949   1461248.66244  21136390.2494   21136392.5044
  -4166298.32749  -3246451.45844  23251426.2064   23251429.2224
  -7851101.19049  -6117725.97344  22477098.7344   22477101.1304
  19260485.92747  15008169.23144  24849808.1174   24849808.2634
 -17356492.90849 -13524515.58345  20684569.0844   20684571.0944
 98 12  1  1 52  0.0000000  0  5G27G26G15G13G 7
   1952890.67049   1521740.33344  21151163.0984   21151165.0254
  -4142099.47549  -3227595.20844  23256031.1894   23256033.8324
  -7820850.68349  -6094154.12844  22482854.8994   22482857.9404
  19359174.61347  15085069.53244  24868587.7164   24868590.3414
 -17393663.32649 -13553479.51845  20677495.7564   20677497.6654
 98 12  1  1 52 30.0000000  0  5G27G26G15G13G 7
   2030985.94149   1582593.77844  21166024.4424   21166026.2024
  -4117396.87549  -3208346.43244  23260732.0594   23260735.2924
  -7789989.25849  -6070106.23844  22488727.4614   22488730.9084
  19457789.69747  15161912.48444  24887352.6684   24887355.8954
 -17430407.83449 -13582111.57445  20670503.5664   20670505.5634
 98 12  1  1 53  0.0000000  0  5G27G26G15G13G 7
   2109543.59049   1643807.51944  21180973.5254   21180975.1374
  -4092172.89949  -3188691.39044  23265531.8234   23265535.0334
  -7758517.65449  -6045582.89644  22494716.1724   22494719.1214
  19556335.78147  15238701.65344  24906105.1614   24906108.1104
 -17466723.01449 -13610409.08645  20663592.7954   20663594.8594
 98 12  1  1 53 30.0000000  0  5G27G26G15G13G 7
   2188547.31249   1705368.84244  21196007.3164   21196009.0314
  -4066425.17049  -3168628.22544  23270431.3384   23270434.4384
  -7726436.94249  -6020584.91644  22500820.8734   22500824.7114
  19654832.67747  15315452.49144  24924848.3664   24924854.6224
 -17502642.23449 -13638398.05845  20656757.6414   20656759.4684
 98 12  1  1 54  0.0000000  0  5G27G26G15G13G 7
   2267998.91549   1767279.16244  21211126.3874   21211128.0054
  -4040180.51149  -3148177.83244  23275425.3764   23275428.9884
  -7693747.98649  -5995112.99444  22507041.3474   22507044.5184
  19753287.42447  15392170.49244  24943583.3014   24943588.6094
 -17538181.53849 -13666090.98945  20649994.7754   20649996.5404
 98 12  1  1 54 30.0000000  0  5G27G26G15G13G 7
   2347896.11349   1829536.69944  21226330.3794   21226331.5404
  -4013463.22249  -3127359.16944  23280508.8254   23280512.5714
  -7660451.75849  -5969167.86244  22513377.9704   22513380.0594
  19851703.46948  15468858.33444  24962311.5914   24962314.8374
 -17573349.01449 -13693494.18245  20643302.5274   20643304.2674
 98 12  1  1 55  0.0000000  0  5G27G26G15G13G 7
   2428240.11549   1892142.40244  21241619.5014   21241620.5714
  -3986293.23049  -3106187.73644  23285679.0354   23285683.3554
  -7626549.30449  -5942750.35244  22519829.2104   22519831.3624
  19950066.10548  15545504.51744  24981029.7924   24981032.9584
 -17608156.61249 -13720616.94945  20636678.8144   20636680.5234
 98 12  1  1 55 30.0000000  0  5G27G26G15G13G 7
   2509027.44949   1955093.55744  21256992.7294   21256993.8684
  -3958685.33149  -3084675.09344  23290932.9584   23290936.3094
  -7592041.78449  -5915861.36044  22526395.6404   22526398.6344
  20048362.67548  15622099.26244  24999735.3994   24999737.3994
 -17642603.77749 -13747458.85945  20630123.8054   20630125.4464
 98 12  1  1 56  0.0000000  0  5G27G26G15G13G 7
   2590257.83849   2018389.95244  21272450.1724   21272451.5724
  -3930633.11049  -3062816.21544  23296271.0044   23296274.5914
  -7556930.14649  -5888501.64544  22533077.4864   22533079.9474
  20146571.85249  15698625.86644  25018423.8024   25018424.3204
 -17676664.79549 -13773999.87545  20623642.3054   20623643.7924
 98 12  1  1 56 30.0000000  0  5G27G26G15G13G 7
   2671918.69249   2082021.77044  21287989.8214   21287991.4884
  -3902114.17749  -3040593.65944  23301698.6824   23301701.7774
  -7521215.69549  -5860672.18644  22539873.9454   22539875.7644
  20244667.78149  15775064.26244  25037091.0504   25037091.0524
 -17710338.79449 -13800239.31845  20617234.0694   20617235.7394
 98 12  1  1 57  0.0000000  0  5G27G26G15G13G 7
   2754009.77449   2145988.83544  21303611.2544   21303612.8964
  -3873106.95049  -3017990.61944  23307218.5294   23307221.6204
  -7484899.25249  -5832373.64544  22546784.3734   22546787.6254
  20342645.59249  15851410.56844  25055735.3544   25055739.4814
 -17743624.07449 -13826175.86145  20610900.0254   20610901.8504
 98 12  1  1 57 30.0000000  0  5G27G26G15G13G 7
   2836532.10749   2210291.93944  21319314.9954   21319316.7014
  -3843601.82449  -2994999.59944  23312833.1794   23312836.1964
  -7447982.29149  -5803607.18144  22553809.4734   22553811.9064
  20440515.24849  15927672.59844  25074359.0634   25074360.5574
 -17776515.62849 -13851805.60945  20604640.9094   20604642.7774
 98 12  1  1 58  0.0000000  0  5G27G26G15G13G 7
   2919496.12149   2274939.21444  21335102.4264   21335104.0304
  -3813598.60549  -2971620.46844  23318542.7424   23318545.7864
  -7410466.17649  -5774373.82544  22560948.2334   22560951.1164
  20538278.14649  16003851.44044  25092962.9964   25092965.2514
 -17809020.78649 -13877134.26845  20598455.4574   20598457.3824
 98 12  1  1 58 30.0000000  0  5G27G26G15G13G 7
   3002900.16649   2339929.36844  21350973.5884   21350975.2584
  -3783110.32449  -2947863.35644  23324344.7654   23324347.5504
  -7372351.61849  -5744674.16644  22568201.3044   22568203.7254
  20635946.95749  16079956.96744  25111549.0634   25111551.9514
 -17841140.71849 -13902162.75345  20592343.1884   20592344.9204
 98 12  1  1 59  0.0000000  0  5G27G26G15G13G 7
   3086740.73249   2405259.66944  21366927.8174   21366929.5584
  -3752159.35649  -2923745.71244  23330234.3034   23330237.2194
  -7333640.26049  -5714509.45944  22575568.2734   22575571.0614
  20733545.24749  16156007.52944  25130121.1434   25130124.7064
 -17872861.77449 -13926880.42645  20586307.0204   20586308.8464
 98 12  1  1 59 30.0000000  0  5G27G26G15G13G 7
   3171011.27649   2470925.01644  21382964.0624   21382965.8574
  -3720753.67649  -2899273.73644  23336210.4204   23336213.5524
  -7294333.20549  -5683880.58644  22583047.9634   22583050.7214
  20831060.80049  16231993.61744  25148677.2694   25148679.4124
 -17904179.14849 -13951283.54345  20580347.4984   20580349.2194
 98 12  1  2  0  0.0000000  0  5G27G26G15G13G 7
   3255694.33849   2536911.81044  21399078.6774   21399080.5884
  -3688889.66149  -2874444.62144  23342273.5034   23342277.5334
  -7254431.80349  -5652788.58544  22590640.5954   22590643.7324
  20928485.03348  16307908.54144  25167216.4604   25167219.8144
 -17935095.87449 -13975374.46745  20574464.3144   20574466.0514
 98 12  1  2  0 30.0000000  0  5G27G26G15G13G 7
   3340776.49649   2603209.58444  21415269.3244   21415271.2854
  -3656569.64149  -2849260.17944  23348423.8124   23348426.8514
  -7213937.52449  -5621234.59044  22598346.5394   22598349.5874
  21025818.66248  16383752.86844  25185738.5004   25185742.5844
 -17965615.40849 -13999155.89445  20568656.5404   20568658.3294
 98 12  1  2  1  0.0000000  0  5G27G26G15G13G 7
   3426267.95349   2669826.29744  21431537.4484   21431539.4454
  -3623793.82849  -2823720.57744  23354660.8324   23354665.0604
  -7172851.30849  -5589219.36044  22606164.6244   22606167.6584
  21123059.31448  16459524.73744  25204242.6794   25204247.0124
 -17995757.69349 -14022643.35745  20562920.6434   20562922.5284
 98 12  1  2  1 30.0000000  0  5G27G26G15G13G 7
   3512173.32649   2736765.53544  21447884.4934   21447886.7094
  -3590563.19449  -2797826.56544  23360984.8074   23360987.5254
  -7131174.57249  -5556743.97544  22614096.0094   22614098.7794
  21220200.50748  16535219.10244  25222727.6824   25222732.7204
 -18025538.05949 -14045848.80745  20557253.7644   20557255.5214
 98 12  1  2  2  0.0000000  0  5G27G26G15G13G 7
   3598491.20549   2804026.20544  21464310.1814   21464312.5974
  -3556897.75349  -2771593.74444  23367391.2134   23367394.4814
  -7088908.93049  -5523809.70744  22622138.8114   22622141.3054
  21317250.95248  16610842.73144  25241196.3114   25241200.1404
 -18054959.45349 -14068774.53845  20551654.9654   20551656.7484
 98 12  1  2  2 30.0000000  0  5G27G26G15G13G 7
   3685233.22249   2871617.37344  21480816.9524   21480819.1334
  -3522803.64649  -2745026.90044  23373879.0394   23373881.9714
  -7046055.75749  -5490417.62644  22630293.8924   22630296.2764
  21414212.23448  16686396.89944  25259647.7834   25259651.8494
 -18084015.64349 -14091415.69645  20546125.6784   20546127.5904
 98 12  1  2  3  0.0000000  0  5G27G26G15G13G 7
   3772396.28649   2939536.62944  21497403.6224   21497405.4374
  -3488272.45049  -2718119.45744  23380449.6824   23380451.8034
  -7002616.37249  -5456568.75944  22638560.3194   22638563.3494
  21511072.43248  16761872.30144  25278079.2734   25278085.4144
 -18112690.99349 -14113760.09445  20540668.8124   20540670.5764
 98 12  1  2  3 30.0000000  0  5G27G26G15G13G 7
   3859959.36049   3007767.57944  21514066.4324   21514068.3014
  -3453287.77349  -2690858.66344  23387107.2124   23387110.3914
  -6958592.25549  -5422264.25644  22646937.4424   22646940.4754
  21607821.39048  16837261.00444  25296490.4004   25296492.7544
 -18140966.86449 -14135793.20945  20535287.8504   20535289.6954
 98 12  1  2  4  0.0000000  0  5G27G26G15G13G 7
   3947914.54249   3076304.07044  21530803.7744   21530805.3014
  -3417835.56249  -2663233.56044  23393853.2754   23393857.0094
  -6913984.93849  -5387505.31044  22655425.4584   22655427.9934
  21704443.26948  16912550.68544  25314877.8154   25314879.9544
 -18168846.95849 -14157517.92745  20529982.5774   20529984.4584
 98 12  1  2  4 30.0000000  0  5G27G26G15G13G 7
   4036262.01749   3145146.24144  21547615.6314   21547617.3884
  -3381894.81049  -2635227.77544  23400692.6774   23400695.8774
  -6868795.70249  -5352292.92244  22664024.3474   22664027.0784
  21800917.97347  16987725.69244  25333235.4244   25333238.8544
 -18196338.37449 -14178939.77945  20524751.1494   20524752.9024
 98 12  1  2  5  0.0000000  0  5G27G26G15G13G 7
   4124999.39049   3214292.22844  21564501.8154   21564503.1414
  -3345477.66549  -2606850.77644  23407622.8624   23407625.9264
  -6823026.31749  -5316628.46644  22672734.3194   22672736.8144
  21897229.70547  17062773.67144  25351563.1204
 -18223442.62549 -14200059.94745  20519593.3234   20519595.2944
 98 12  1  2  5 30.0000000  0  5G27G26G15G13G 7
   4214135.30949   3283748.77344  21581463.9744   21581465.2504
  -3308600.77449  -2578115.52844  23414640.4924   23414643.7264
  -6776678.38349  -5280513.18844  22681553.7454   22681556.9314
  21993384.22047  17137699.17444  25369861.5244   25369864.0384
 -18250174.57849 -14220890.01145  20514506.5434   20514508.4524
 98 12  1  2  6  0.0000000  0  5G27G26G15G13G 7
   4303692.85449   3353533.86144  21598506.3084   21598507.8334
  -3271287.02449  -2549039.86744  23421740.8884   23421743.7484
  -6729753.36849  -5243948.22644  22690483.4854   22690486.5154
  22089380.39947  17212501.27144  25388128.8244   25388130.7204
 -18276541.51049 -14241435.64445  20509489.0044   20509490.8044
 98 12  1  2  6 30.0000000  0  5G27G26G15G13G 7
   4393672.66349   3423647.97744  21615628.7344   21615630.3104
  -3233553.59249  -2519637.19244  23428921.5054   23428924.0124
  -6682252.97449  -5206934.94244  22699522.3204   22699525.5174
  22185229.57647  17287188.90344  25406368.2594
 -18302532.19049 -14261688.09345  20504542.9304   20504544.8574
 98 12  1  2  7  0.0000000  0  5G27G26G15G13G 7
   4484065.49349   3494083.93144  21632830.0034   21632831.6074
  -3195413.20249  -2489917.40144  23436179.4274   23436182.4764
  -6634178.65749  -5169474.42444  22708670.6104   22708673.0944
  22280959.80347  17361783.82944  25424586.4814
 -18328142.59449 -14281644.22245  20499669.2884   20499671.1794
 98 12  1  2  7 30.0000000  0  5G27G26G15G13G 7
   4574858.61749   3564831.81144  21650107.4114   21650109.1144
  -3156862.92249  -2459878.20744  23443515.1694   23443518.7994
  -6585532.04749  -5131567.97144  22717927.9484   22717930.1904
  22376590.29047                  25442785.4874
 -18353382.22849 -14301311.44145  20494866.3634   20494868.2444
 98 12  1  2  8  0.0000000  0  5G27G26G15G13G 7
   4666040.47149   3635882.59644  21667458.7044   21667460.5764
  -3117899.63949  -2429517.19444  23450929.3384   23450933.0604
  -6536314.89949  -5093216.95044  22727293.6274   22727296.4874
  22472109.49747                  25460962.1864
 -18378241.85249 -14320682.55045  20490135.8144   20490137.6074
 98 12  1  2  8 30.0000000  0  5G27G26G15G13G 7
   4757585.90549   3707216.68144  21684879.2114   21684880.7754
  -3078506.29449  -2398821.08244  23458425.7884   23458428.9464
  -6486528.60349  -5054422.44744  22736768.0644   22736770.1064
  22567519.90346                  25479117.7484
 -18402719.11049 -14339755.71145  20485477.9414   20485479.9234
 98 12  1  2  9  0.0000000  0  5G27G26G15G13G 7
   4849490.38549   3778830.55044  21702368.0864   21702369.4744
  -3038676.68649  -2367785.01244  23466004.9144   23466008.1314
  -6436175.16449  -5015185.99444  22746349.7534   22746351.8134
  22662807.86346                  25497250.6714
 -18426811.40849 -14358528.90245  20480893.2844   20480895.2174
 98 12  1  2  9 30.0000000  0  4G27G26G15G 7
   4941753.16249   3850723.61444  21719924.9204   21719926.8184
  -2998409.30249  -2336407.81944  23473667.5304   23473670.5854
  -6385256.53449  -4975509.13544  22756039.0764   22756042.2344
 -18450518.19149 -14377001.69545  20476381.9194   20476383.9324
 98 12  1  2 10  0.0000000  0  5G27G 4G26G15G 7
   5034378.03249   3922898.81344  21737550.7894   21737552.4424
        -0.71557        -0.34154  23953312.0624   23953317.6304
  -2957695.94849  -2304683.11044  23481414.9924   23481418.0844
  -6333774.17249  -4935393.01544  22765835.4784   22765838.8094
 -18473834.54749 -14395170.25845  20471944.9324   20471947.0154
 98 12  1  2 10 30.0000000  0  5G27G 4G26G15G 7
   5127355.54849   3995348.81044  21755244.0884   21755245.7734
   -112187.49547    -87418.49544  23931964.4224   23931967.7494
  -2916534.77649  -2272609.47044  23489247.6664   23489250.5794
  -6281729.73249  -4894838.91144  22775739.1504   22775742.2544
 -18496764.37949 -14413037.63645  20467581.5084   20467583.5684
 98 12  1  2 11  0.0000000  0  5G27G 4G26G15G 7
   5220697.54949   4068082.81844  21773006.3814   21773007.8174
   -224325.72047   -174798.85944  23910625.1864   23910629.9114
  -2874945.08449  -2240201.89444  23497161.9524   23497164.3074
  -6229125.17849  -4853848.35744  22785749.8704   22785752.2944
 -18519308.19349 -14430604.22145  20463291.6554   20463293.5834
 98 12  1  2 11 30.0000000  0  5G27G 4G26G15G 7
   5314414.08049   4141108.66844  21790840.1654   21790841.6714
   -336405.63748   -262133.81144  23889297.2864   23889301.2574
  -2832912.77749  -2207449.42644  23505160.5214   23505164.1164
  -6175962.19849  -4812422.67644  22795866.4434   22795869.7434
 -18541479.38549 -14447880.45146  20459072.7754   20459074.5224
 98 12  1  2 12  0.0000000  0  5G27G 4G26G15G 7
   5408512.83149   4214432.35544  21808746.6874   21808747.7294
   -448438.05648   -349431.70844  23867978.4264   23867983.1214
  -2790430.62149  -2174346.43044  23513244.4244   23513247.6174
  -6122242.51549  -4770563.19444  22806089.2854   22806091.3024
 -18563275.32349 -14464864.27546  20454925.0734   20454926.9074
 98 12  1  2 12 30.0000000  0  5G27G 4G26G15G 7
   5503000.85549   4288059.37144  21826727.0864   21826728.2404
   -560425.84248   -436694.86144  23846667.9034   23846671.9884
  -2747509.44249  -2140901.33544  23521411.7864   23521415.6624
  -6067968.23849  -4728271.57044  22816417.2504   22816420.0984
 -18584700.40949 -14481559.12646  20450848.0354   20450849.7724
 98 12  1  2 13  0.0000000  0  5G27G 4G26G15G 7
   5597892.87549   4362001.18744  21844784.4774   21844786.4414
   -672341.44648   -523901.77044  23825371.0804   23825372.5434
  -2704153.94849  -2107117.81244  23529662.1004   23529666.7404
  -6013141.24549  -4685549.25844  22826850.3444   22826853.3424
 -18605763.12849 -14497971.61246  20446839.9024   20446841.6814
 98 12  1  2 13 30.0000000  0  5G27G 4G26G15G 7
   5693176.31949   4436248.00944  21862916.1834   21862917.8994
   -784174.74748   -611044.52344  23804089.8114   23804093.0364
  -2660364.43549  -2072996.08244  23537994.8594   23537998.5324
  -5957763.38449  -4642397.69844  22837388.2134   22837390.0454
 -18626462.46649 -14514100.94546  20442901.0074   20442902.6824
 98 12  1  2 14  0.0000000  0  5G27G 4G26G15G 7
   5788836.98249   4510788.76444  21881120.0744   21881122.0404
   -895931.79548   -698127.88244  23782822.7904   23782826.9114
  -2616184.22649  -2038569.91544  23546402.2844   23546406.6194
  -5901836.62149  -4598818.43144  22848030.0644   22848033.1314
 -18646783.30049 -14529935.34246  20439033.9644   20439035.6714
 98 12  1  2 14 30.0000000  0  5G27G 4G26G15G 7
   5884855.39049   4585608.28344  21899391.6754   21899393.6654
  -1007609.02548   -785149.04844  23761570.6364   23761572.8824
  -2571634.07549  -2003855.48044  23554879.8104   23554883.1844
  -5845362.78649  -4554812.86644  22858777.4704   22858780.2844
 -18666724.51349 -14545473.93045  20435239.1414   20435240.8914
 98 12  1  2 15  0.0000000  0  5G27G 4G26G15G 7
   5981205.46349   4660686.24044  21917726.4914   21917728.7554
  -1119198.85848   -872102.08044  23740335.7134   23740339.2114
  -2526711.78049  -1968851.06844  23563428.3184   23563431.5504
  -5788343.78549  -4510382.48644  22869628.0644   22869630.3874
 -18686275.14949 -14560708.17345  20431518.8674   20431520.5294
 98 12  1  2 15 30.0000000  0  5G27G 4G26G15G 7
   6077876.97049   4736014.66844  21936122.4134   21936124.5904
  -1230716.74648   -958999.02044  23719114.5114   23719116.7424
  -2481418.91549  -1933557.90644  23572047.3814   23572050.4914
  -5730781.64049  -4465528.89044  22880582.1764   22880585.3934
 -18705420.47249 -14575626.58945  20427875.6344   20427877.2964
 98 12  1  2 16  0.0000000  0  5G27G 4G26G15G 7
   6174869.75049   4811593.44044  21954579.3384   21954581.2614
  -1342162.58349  -1045839.85144  23697907.4714   23697910.9204
  -2435749.38249  -1897971.22544  23580738.2214   23580741.5494
  -5672677.94649  -4420253.29744  22891639.3904   22891642.1614
 -18724174.33149 -14590239.96645  20424306.8084   20424308.4734
 98 12  1  2 16 30.0000000  0  5G27G 4G26G15G 7
   6272182.19749   4887421.29844  21973097.3304   21973099.2924
  -1453527.67949  -1132617.75744  23676715.5404   23676718.6394
  -2389674.23349  -1862068.49344  23589506.1564   23589508.4344
  -5614034.98349  -4374557.49644  22902798.3794   22902800.3794
 -18742561.62149 -14604567.70545  20420807.8844   20420809.4964
 98 12  1  2 17  0.0000000  0  5G27G 4G26G15G 7
   6369837.60749   4963516.40644  21991680.6354   21991682.2994
  -1564804.64649  -1219326.97644  23655540.2544   23655544.1164
  -2343186.14649  -1825843.98144  23598352.6604   23598354.4714
  -5554854.93649  -4328443.18344  22914059.5894   22914063.0274
 -18760593.87349 -14618618.78945  20417376.5204   20417378.1584
 98 12  1  2 17 30.0000000  0  5G27G 4G26G15G 7
   6467854.91149   5039893.50344  22010333.0184   22010334.9734
  -1676001.55449  -1305973.81344  23634379.9964   23634381.8914
  -2296295.84249  -1789306.05644  23607275.5934   23607277.4544
  -5495139.80349  -4281911.92344  22925422.7234   22925426.2114
 -18778284.88949 -14632403.97645  20414010.0254   20414011.5684
 98 12  1  2 18  0.0000000  0  5G27G 4G26G15G 7
   6566230.81549   5116550.02944  22029053.3884   22029055.1294
  -1787103.37449  -1392546.56944  23613237.7234   23613241.7164
  -2249008.78349  -1752458.97444  23616273.6944   23616276.0004
  -5434891.60249  -4234965.29344  22936887.2044   22936889.5744
 -18795648.03149 -14645933.67845  20410705.8444   20410707.4044
 98 12  1  2 18 30.0000000  0  5G27G 4G26G15G 7
   6664973.06849   5193492.02244  22047843.3514   22047845.3504
  -1898099.01449  -1479036.54744  23592115.4914   23592119.8734
  -2201338.94549  -1715313.62744  23625344.8084   23625346.1414
  -5374112.80149  -4187605.21344  22948453.4604   22948455.9824
 -18812653.94249 -14659185.01645  20407469.6524   20407471.1894
 98 12  1  2 19  0.0000000  0  6G27G 4G 9G26G15G 7
   6764075.13649   5270714.38544  22066701.9714   22066703.6534
  -2008979.69449  -1565436.98244  23571015.2174   23571018.4604
        -1.05357        -1.31454  24082069.0414   24082074.7644
  -2153299.90549  -1677880.58744  23634486.0594   23634488.3994
  -5312805.10949  -4139833.00744  22960120.1294   22960123.3974
 -18829281.81249 -14672141.77945  20404305.3384   20404306.9294
 98 12  1  2 19 30.0000000  0  6G27G 4G 9G26G15G 7
   6863510.53349   5348196.48644  22085623.8184   22085625.4644
  -2119739.07249  -1651742.89044  23549938.2694   23549941.4384
    -95561.32047    -74463.73744  24063884.8344   24063888.0224
  -2104894.94349  -1640162.41344  23643697.2804   23643700.4654
  -5250970.58049  -4091650.27944  22971887.2064   22971889.4504
 -18845526.64749 -14684800.07045  20401214.1224   20401215.7334
 98 12  1  2 20  0.0000000  0  6G27G 4G 9G26G15G 7
   6963268.01349   5425929.56544  22104607.1844   22104608.3494
  -2230364.15449  -1737944.14044  23528887.5274   23528891.7874
   -190892.94647   -148747.98944  24045743.4654   24045745.0794
  -2056123.75449  -1602158.87544  23652978.2904   23652979.6314
  -5188611.28549  -4043058.64244  22983753.9164   22983756.3514
 -18861384.37749 -14697156.72345  20398196.5944   20398198.1264
 98 12  1  2 20 30.0000000  0  6G27G 4G 9G26G15G 7
   7063343.59649   5503910.52544  22123650.9874   22123652.5154
  -2340861.10149  -1824045.56944  23507860.6964   23507863.8744
   -286002.34947   -222859.09344  24027644.4104   24027647.8304
  -2006980.82549  -1563865.66144  23662329.9544   23662333.4054
  -5125729.61749  -3994059.96444  22995719.5404   22995722.3164
 -18876860.52249 -14709216.03545  20395251.6064   20395253.0824
 98 12  1  2 21  0.0000000  0  6G27G 4G 9G26G15G 7
   7163723.25049   5582128.41744  22142752.5114   22142753.9624
  -2451239.68549  -1910054.77744  23486856.5444   23486859.4254
   -380897.62948   -296803.32144  24009586.6664   24009589.8454
  -1957443.84049  -1525265.38544  23671756.4024   23671759.0154
  -5062327.48249  -3944655.73144  23007784.4984   23007787.3604
 -18891986.48649 -14721002.48045  20392373.2474   20392374.7524
 98 12  1  2 21 30.0000000  0  6G27G 4G 9G26G15G 7
   7264411.11449   5660586.46944  22161912.7594   22161914.6274
  -2561516.61049  -1995984.76244  23465871.5854   23465874.6994
   -475572.66248   -370575.94644  23991570.2954   23991572.1444
  -1907506.53049  -1486353.17444  23681259.2494   23681262.3764
  -4998407.23649  -3894847.76644  23019948.0894   23019950.9034
 -18906771.03049 -14732522.88446  20389559.8174   20389561.1794
 98 12  1  2 22  0.0000000  0  6G27G 4G 9G26G15G 7
   7365412.73349   5739289.01344  22181132.4214   22181134.3854
  -2671698.62849  -2081840.79144  23444904.3244   23444907.4884
   -570042.73748   -444188.85144  23973593.5204   23973596.1304
  -1857170.18649  -1447130.02944  23690838.0314   23690840.1004
  -4933970.85949  -3844637.62644  23032209.7844   23032212.4734
 -18921213.44049 -14743776.69045  20386811.2954   20386812.7044
 98 12  1  2 22 30.0000000  0  6G27G 4G 9G26G15G 7
   7466723.63649   5818232.55744  22200411.0194   22200413.9844
  -2781788.29149  -2167624.86244  23423954.9304   23423958.0754
   -664303.90049   -517638.98344  23955655.9544   23955659.0184
  -1806428.18749  -1407590.79944  23700493.6704   23700496.0734
  -4869020.71349  -3794027.14244  23044569.7654   23044573.1494
 -18935304.16149 -14754756.45446  20384130.0584   20384131.5274
 98 12  1  2 23  0.0000000  0  6G27G 4G 9G26G15G 7
   7568343.34349   5897416.72244  22219748.7604   22219751.3834
  -2891783.61949  -2253335.42644  23403023.1244   23403025.6484
   -758351.68049   -590922.84744  23937759.2874   23937761.9574
  -1755296.62149  -1367747.99444  23710224.0914   23710227.3144
  -4803559.24349  -3743018.23144  23057026.3674   23057028.8274
 -18949022.76849 -14765446.25846  20381519.3864   20381520.7444
